Laatste waarneming: 21:53
Temperatuur:18,3°C
Dauwpunt:14,1°C
Rel. vocht:76,0%
Natte-bol:16,3°C
Wind (gem. 10 min.):12,5 m/s
Wind (max. 10 min.):12.9642 m/s
Windrichting:251°
Neerslagsom:0,6 mm
Neerslagintensiteit:0,0 mm/u
Luchtdruk:1013,3 hPa
Straling:0,0 W/m2
 
Maximumtemp.:21,4°C (10:45)
Minimumtemp.:17,2°C (14:09)
Hoogste windstoot:19,2 m/s (16:46)


Bekijk de verwachting.

Bekijk de grafieken.
Bekijk het weekoverzicht.
Bekijk het maandoverzicht.
Bekijk het jaaroverzicht.
Dagtabel
Tijd Temp. Dauwp. Natte-bol Rel. Hum. Windsnelh. Windricht. Windstoot Neerslag Straling Luchtdruk
 
21:53 18,3 14,1 16,3 76,0 12,5 251 - 0,6 0 1.013,3
21:52 18,3 14,1 16,3 76,0 11,8 257 - 0,6 0 1.013,3
21:51 18,3 14,2 16,4 76,6 11,1 253 - 0,6 0 1.013,3
21:50 18,4 14,3 16,5 77,0 10,7 255 - 0,6 0 1.013,3
21:49 18,3 14,1 16,3 76,1 10,9 257 - 0,6 0 1.013,2
21:48 18,3 14,1 16,3 76,0 11,5 228 - 0,6 0 1.013,2
21:47 18,3 14,0 16,3 75,7 11,5 265 - 0,6 0 1.013,2
21:46 18,3 13,9 16,2 75,0 11,4 265 - 0,6 0 1.013,1
21:45 18,3 13,9 16,2 75,0 11,7 246 - 0,6 0 1.013,1
21:44 18,3 14,0 16,3 75,8 11,7 261 - 0,6 0 1.013,2
21:43 18,3 14,1 16,3 76,0 11,1 281 - 0,6 0 1.013,1
21:42 18,3 13,9 16,2 75,0 9,9 235 13,0 0,6 0 1.013,1
21:41 18,3 13,8 16,1 74,7 11,2 194 14,8 0,6 0 1.013,0
21:40 18,3 13,8 16,1 74,5 11,3 259 14,8 0,6 0 1.013,0
21:39 18,3 14,0 16,3 75,7 12,1 256 - 0,6 0 1.013,1
21:38 18,3 13,9 16,2 75,2 11,0 251 - 0,6 0 1.013,1
21:37 18,3 13,7 16,0 74,2 10,9 283 - 0,6 0 1.013,1
21:36 18,3 13,9 16,2 75,0 11,6 255 - 0,6 0 1.013,1
21:35 18,3 13,9 16,2 75,4 11,9 265 - 0,6 0 1.013,0
21:34 18,3 14,0 16,3 75,5 11,6 239 - 0,6 0 1.013,1
21:33 18,3 14,0 16,3 75,7 11,1 261 - 0,6 0 1.013,1
21:32 18,3 14,1 16,3 76,0 11,6 247 - 0,6 0 1.013,1
21:31 18,3 13,9 16,2 75,1 12,2 251 - 0,6 0 1.013,0
21:30 18,3 14,0 16,3 75,5 12,2 230 - 0,6 0 1.013,0
21:29 18,4 14,3 16,5 77,0 11,9 207 - 0,6 0 1.013,0
21:28 18,4 14,2 16,4 76,5 11,9 242 - 0,6 0 1.013,0
21:27 18,3 14,1 16,3 76,0 12,6 259 15,6 0,6 0 1.012,9
21:26 18,3 13,9 16,2 75,1 12,6 222 - 0,6 0 1.012,9
21:25 18,3 13,9 16,2 75,3 12,2 217 - 0,6 0 1.013,0
21:24 18,3 14,2 16,4 76,7 11,7 259 - 0,6 0 1.013,0
21:23 18,3 14,1 16,3 76,0 12,0 251 - 0,6 0 1.013,0
21:22 18,3 14,2 16,4 76,6 11,2 262 - 0,6 0 1.013,0
21:21 18,4 14,3 16,5 77,0 11,0 207 - 0,6 0 1.012,9
21:20 18,4 14,3 16,5 77,0 11,1 247 - 0,6 0 1.013,0
21:19 18,4 14,3 16,5 76,9 10,7 234 - 0,6 0 1.012,9
21:18 18,3 14,1 16,3 76,0 11,3 285 - 0,6 0 1.012,9
21:17 18,3 14,2 16,4 76,5 12,4 271 - 0,6 0 1.012,8
21:16 18,3 14,3 16,5 77,0 12,0 250 - 0,6 0 1.012,8
21:15 18,3 14,3 16,5 77,0 12,1 219 - 0,6 0 1.012,9
21:14 18,3 14,3 16,5 76,9 12,3 241 - 0,6 0 1.012,9
21:13 18,3 14,1 16,3 76,2 12,4 244 - 0,6 0 1.012,9
21:12 18,3 14,3 16,5 77,0 12,0 222 - 0,6 0 1.012,9
21:11 18,3 14,2 16,4 76,6 11,5 221 - 0,6 0 1.012,9
21:10 18,3 14,1 16,3 76,0 11,8 251 - 0,6 0 1.012,8
21:09 18,3 14,1 16,3 76,0 12,6 259 - 0,6 0 1.012,8
21:08 18,3 13,9 16,2 75,2 12,8 278 - 0,6 0 1.012,8
21:07 18,3 14,1 16,3 76,0 12,3 261 - 0,6 0 1.012,8
21:06 18,3 14,1 16,3 76,0 12,1 245 - 0,6 0 1.012,8
21:05 18,3 14,2 16,4 76,5 12,0 244 - 0,6 0 1.012,8
21:04 18,4 14,3 16,5 77,0 11,4 247 - 0,6 0 1.012,7
21:03 18,4 14,2 16,4 76,2 10,7 217 - 0,6 0 1.012,7
21:02 18,3 13,9 16,2 75,1 10,0 238 - 0,6 0 1.012,7
21:01 18,3 13,9 16,2 75,2 10,5 184 14,8 0,6 0 1.012,7
21:00 18,4 14,1 16,3 75,7 10,7 228 15,2 0,6 0 1.012,7
 
20:59 18,3 13,9 16,2 75,0 11,5 254 - 0,6 0 1.012,7
20:58 18,4 13,9 16,2 75,0 10,9 243 13,9 0,6 0 1.012,7
20:57 18,4 13,9 16,2 75,0 10,5 284 13,9 0,6 0 1.012,8
20:56 18,4 14,0 16,2 75,1 10,6 226 - 0,6 0 1.012,8
20:55 18,4 14,1 16,3 75,8 11,0 252 - 0,6 0 1.012,8
20:54 18,4 13,9 16,2 74,6 11,2 256 - 0,6 0 1.012,7
20:53 18,4 13,7 16,1 74,0 11,1 255 - 0,6 0 1.012,7
20:52 18,4 13,9 16,2 74,7 11,1 265 - 0,6 0 1.012,7
20:51 18,4 14,0 16,2 75,0 10,7 238 - 0,6 0 1.012,7
20:50 18,4 13,8 16,1 74,1 10,4 203 13,4 0,6 0 1.012,7
20:49 18,4 13,7 16,1 74,0 10,6 277 - 0,6 0 1.012,7
20:48 18,4 13,8 16,1 74,4 12,0 256 - 0,6 0 1.012,7
20:47 18,4 13,9 16,2 75,0 11,7 272 - 0,6 0 1.012,7
20:46 18,4 13,8 16,1 74,3 11,1 266 - 0,6 0 1.012,7
20:45 18,4 13,9 16,2 74,9 10,9 245 - 0,6 0 1.012,7
20:44 18,4 13,8 16,1 74,1 11,4 275 - 0,6 0 1.012,6
20:43 18,4 13,8 16,1 74,0 11,7 260 - 0,6 0 1.012,6
20:42 18,4 13,8 16,1 74,0 9,2 269 12,5 0,6 0 1.012,6
20:41 18,4 13,7 16,1 73,5 6,5 350 12,1 0,6 0 1.012,5
20:40 18,4 13,4 15,8 72,3 8,1 215 15,2 0,6 0 1.012,5
20:39 18,4 13,5 15,9 72,9 13,2 250 - 0,6 0 1.012,5
20:38 18,4 13,8 16,1 74,0 13,6 256 - 0,6 0 1.012,5
20:37 18,4 13,7 16,1 74,0 13,2 253 - 0,6 0 1.012,5
20:36 18,4 13,9 16,2 74,5 12,7 257 - 0,6 0 1.012,6
20:35 18,4 14,0 16,3 75,0 12,4 249 - 0,6 0 1.012,6
20:34 18,4 14,0 16,3 75,0 12,5 269 - 0,6 0 1.012,5
20:33 18,5 13,8 16,2 74,1 12,7 257 - 0,6 0 1.012,5
20:32 18,4 13,8 16,1 73,9 12,8 264 - 0,6 0 1.012,4
20:31 18,4 13,5 15,9 73,0 13,5 282 - 0,6 3 1.012,3
20:30 18,4 13,7 16,1 73,9 14,3 259 - 0,6 5 1.012,3
20:29 18,4 14,1 16,4 75,6 14,1 270 - 0,6 5 1.012,3
20:28 18,5 14,4 16,6 76,8 12,9 264 - 0,6 5 1.012,4
20:27 18,4 14,0 16,3 75,3 12,4 271 - 0,6 5 1.012,4
20:26 18,4 14,2 16,4 76,0 12,9 261 - 0,6 5 1.012,4
20:25 18,5 14,3 16,5 76,4 12,5 265 - 0,6 5 1.012,3
20:24 18,5 14,4 16,6 77,0 11,4 222 14,8 0,6 5 1.012,3
20:23 18,5 14,1 16,4 75,7 11,5 282 - 0,6 5 1.012,4
20:22 18,4 14,2 16,4 75,8 13,4 278 - 0,6 0 1.012,3
20:21 18,4 14,4 16,6 76,9 13,8 260 - 0,6 0 1.012,3
20:20 18,5 14,2 16,4 76,0 13,6 250 - 0,6 0 1.012,3
20:19 18,4 14,2 16,4 76,0 13,4 259 - 0,6 0 1.012,2
20:18 18,4 14,1 16,3 75,5 13,4 257 - 0,6 0 1.012,1
20:17 18,4 14,1 16,4 75,7 13,7 224 - 0,6 0 1.012,1
20:16 18,4 14,3 16,5 76,8 13,2 214 - 0,6 0 1.012,2
20:15 18,4 14,4 16,5 77,0 12,5 264 - 0,6 0 1.012,2
20:14 18,4 14,4 16,6 77,3 13,3 271 - 0,6 0 1.012,2
20:13 18,4 14,5 16,6 77,6 13,1 261 - 0,6 0 1.012,2
20:12 18,4 14,3 16,5 77,0 12,7 255 - 0,6 0 1.012,2
20:11 18,4 14,5 16,6 77,7 12,7 284 - 0,6 5 1.012,1
20:10 18,4 14,5 16,7 78,0 12,8 276 - 0,6 5 1.012,2
20:09 18,4 14,3 16,5 77,1 12,8 270 - 0,6 5 1.012,2
20:08 18,4 14,4 16,5 77,3 13,0 274 - 0,6 6 1.012,1
20:07 18,4 14,5 16,7 78,0 13,2 251 - 0,6 7 1.012,1
20:06 18,4 14,5 16,7 78,0 13,0 251 - 0,6 7 1.012,1
20:05 18,4 14,5 16,7 78,0 12,4 261 - 0,6 7 1.012,1
20:04 18,4 14,6 16,7 78,0 12,7 282 - 0,6 8 1.012,0
20:03 18,4 14,4 16,6 77,3 13,4 269 - 0,6 9 1.011,9
20:02 18,4 14,5 16,7 78,0 14,0 267 - 0,6 10 1.011,9
20:01 18,4 14,4 16,6 77,6 14,1 260 - 0,6 12 1.011,9
20:00 18,4 14,3 16,5 77,0 14,0 242 - 0,6 12 1.012,0
 
19:59 18,4 14,5 16,6 77,7 13,6 242 - 0,6 12 1.012,0
19:58 18,4 14,4 16,6 77,2 13,3 269 - 0,6 12 1.012,0
19:57 18,4 14,4 16,5 77,2 12,7 286 - 0,6 12 1.011,9
19:56 18,4 14,5 16,7 78,0 12,4 225 16,1 0,6 13 1.011,9
19:55 18,4 14,4 16,6 77,5 12,5 261 - 0,6 14 1.011,8
19:54 18,4 14,4 16,6 77,6 13,4 286 - 0,6 16 1.011,7
19:53 18,4 14,4 16,6 77,3 13,9 255 - 0,6 16 1.011,7
19:52 18,4 14,5 16,6 78,0 13,8 265 - 0,6 17 1.011,8
19:51 18,4 14,4 16,5 77,3 13,5 275 - 0,6 19 1.011,7
19:50 18,4 14,5 16,6 78,0 13,3 267 - 0,6 19 1.011,7
19:49 18,4 14,4 16,6 77,6 13,5 253 - 0,6 21 1.011,7
19:48 18,4 14,4 16,6 77,6 13,6 281 - 0,6 21 1.011,7
19:47 18,4 14,5 16,7 78,0 13,2 249 - 0,6 19 1.011,8
19:46 18,4 14,3 16,5 77,1 12,4 267 - 0,6 18 1.011,8
19:45 18,4 14,4 16,5 77,2 12,7 297 - 0,6 16 1.011,8
19:44 18,4 14,5 16,6 77,7 12,9 264 - 0,6 16 1.011,7
19:43 18,4 14,4 16,5 77,0 12,9 270 - 0,6 14 1.011,7
19:42 18,4 14,3 16,5 77,0 13,0 278 - 0,6 16 1.011,7
19:41 18,4 14,2 16,4 76,2 13,4 268 - 0,6 19 1.011,6
19:40 18,4 14,3 16,5 77,0 13,2 276 - 0,6 23 1.011,6
19:39 18,4 14,3 16,5 76,8 13,1 276 - 0,6 23 1.011,6
19:38 18,4 14,2 16,5 76,4 12,8 281 - 0,6 24 1.011,6
19:37 18,4 14,4 16,6 77,0 12,4 291 - 0,6 25 1.011,7
19:36 18,5 14,2 16,5 76,2 11,7 298 - 0,6 25 1.011,7
19:35 18,4 14,0 16,3 75,2 11,8 294 - 0,6 22 1.011,7
19:34 18,4 13,8 16,1 74,1 12,9 281 - 0,6 20 1.011,5
19:33 18,4 13,8 16,1 74,3 13,7 290 - 0,6 19 1.011,5
19:32 18,4 14,0 16,3 75,0 13,8 280 - 0,6 21 1.011,6
19:31 18,5 14,0 16,3 75,0 13,4 285 - 0,6 21 1.011,6
19:30 18,5 14,2 16,4 75,7 12,9 277 - 0,6 21 1.011,6
19:29 18,5 13,9 16,3 74,4 13,1 276 - 0,6 20 1.011,5
19:28 18,5 13,8 16,2 74,0 14,1 283 - 0,6 19 1.011,4
19:27 18,5 13,8 16,2 73,8 14,3 280 - 0,6 17 1.011,4
19:26 18,5 13,6 16,0 73,0 14,0 259 - 0,6 16 1.011,4
19:25 18,5 13,6 16,0 73,0 13,2 276 - 0,6 19 1.011,4
19:24 18,5 13,8 16,1 73,7 13,6 309 - 0,6 21 1.011,4
19:23 18,5 13,7 16,1 73,2 14,0 278 - 0,6 24 1.011,4
19:22 18,5 13,7 16,1 73,3 14,4 285 - 0,6 27 1.011,3
19:21 18,4 14,1 16,3 75,3 14,4 302 - 0,6 28 1.011,4
19:20 18,5 14,0 16,3 75,1 14,0 290 - 0,6 28 1.011,4
19:19 18,4 13,9 16,2 74,6 14,0 274 - 0,6 28 1.011,4
19:18 18,4 14,0 16,3 75,0 14,5 271 - 0,6 28 1.011,3
19:17 18,4 14,1 16,4 75,9 14,4 259 - 0,6 29 1.011,3
19:16 18,4 14,4 16,6 77,0 14,1 263 - 0,6 30 1.011,3
19:15 18,4 14,4 16,6 77,3 13,7 265 - 0,6 30 1.011,3
19:14 18,4 14,5 16,6 77,6 13,3 275 - 0,6 32 1.011,4
19:13 18,4 14,5 16,6 77,6 12,6 257 - 0,6 32 1.011,4
19:12 18,4 14,7 16,8 78,8 12,7 296 16,1 0,6 32 1.011,3
19:11 18,5 14,9 17,0 79,8 13,1 275 16,1 0,6 31 1.011,3
19:10 18,4 14,6 16,8 78,4 13,3 294 - 0,6 30 1.011,2
19:09 18,4 14,7 16,8 78,5 13,7 278 - 0,6 29 1.011,2
19:08 18,4 14,7 16,8 78,5 14,2 276 - 0,6 28 1.011,3
19:07 18,5 15,0 17,0 79,8 13,8 260 - 0,6 22 1.011,2
19:06 18,5 14,9 16,9 79,3 13,5 284 - 0,6 18 1.011,2
19:05 18,4 14,4 16,6 77,3 14,3 279 - 0,6 20 1.011,2
19:04 18,4 14,6 16,7 78,0 15,6 277 - 0,6 25 1.011,2
19:03 18,4 14,6 16,7 78,0 16,1 262 - 0,6 27 1.011,2
19:02 18,4 14,6 16,7 78,0 15,8 265 - 0,6 31 1.011,2
19:01 18,4 14,7 16,8 78,7 15,4 277 - 0,6 36 1.011,2
19:00 18,4 14,6 16,7 78,2 15,3 286 - 0,6 46 1.011,1
 
18:59 18,4 14,5 16,7 78,0 15,0 276 - 0,6 54 1.011,2
18:58 18,4 14,6 16,7 78,2 14,8 271 - 0,6 59 1.011,2
18:57 18,4 14,7 16,8 79,0 14,2 263 - 0,6 59 1.011,2
18:56 18,4 14,7 16,8 79,0 13,4 284 - 0,6 52 1.011,2
18:55 18,4 14,6 16,7 78,4 13,4 249 - 0,6 45 1.011,2
18:54 18,3 14,5 16,6 78,0 14,4 271 - 0,6 50 1.011,2
18:53 18,3 14,5 16,6 78,0 15,4 266 - 0,6 68 1.011,1
18:52 18,3 14,5 16,6 78,3 15,6 263 - 0,6 81 1.011,1
18:51 18,3 14,7 16,8 79,0 15,2 266 - 0,6 84 1.011,1
18:50 18,3 14,8 16,8 79,6 14,3 268 - 0,6 84 1.011,2
18:49 18,3 14,7 16,8 79,3 13,8 270 - 0,6 84 1.011,2
18:48 18,3 14,8 16,9 79,8 13,2 266 - 0,6 85 1.011,2
18:47 18,3 14,8 16,9 79,9 12,7 271 - 0,6 86 1.011,3
18:46 18,3 14,6 16,7 79,0 12,8 255 - 0,6 86 1.011,3
18:45 18,3 14,6 16,7 79,0 13,6 275 - 0,6 86 1.011,2
18:44 18,2 14,5 16,6 78,5 14,2 267 - 0,6 86 1.011,1
18:43 18,3 14,7 16,8 79,7 14,6 257 - 0,6 74 1.011,1
18:42 18,3 15,0 17,0 80,9 14,4 274 18,3 0,6 65 1.011,2
18:41 18,2 14,8 16,8 80,1 13,8 276 - 0,6 66 1.011,2
18:40 18,2 14,7 16,7 79,7 13,6 275 - 0,6 57 1.011,1
18:39 18,1 14,6 16,6 79,5 14,5 294 - 0,6 45 1.011,1
18:38 18,2 14,8 16,8 80,6 14,9 271 - 0,6 36 1.011,1
18:37 18,1 14,9 16,9 81,0 14,6 272 - 0,6 39 1.011,1
18:36 18,1 14,9 16,8 81,0 13,8 278 - 0,6 42 1.011,2
18:35 18,1 14,7 16,7 80,2 13,4 267 - 0,6 47 1.011,1
18:34 18,1 14,7 16,7 80,7 13,4 266 - 0,6 40 1.011,0
18:33 18,0 14,6 16,6 80,0 14,2 252 - 0,6 31 1.011,0
18:32 18,1 14,8 16,8 81,2 14,4 254 - 0,6 25 1.011,0
18:31 18,0 14,8 16,8 81,3 14,6 282 - 0,6 27 1.011,0
18:30 18,0 14,9 16,9 82,0 14,1 251 - 0,6 31 1.011,0
18:29 18,0 15,1 17,0 83,0 14,1 293 - 0,6 39 1.011,0
18:28 17,9 15,0 16,9 83,0 14,5 266 - 0,6 51 1.011,0
18:27 17,9 15,0 16,9 83,5 14,9 280 17,9 0,6 63 1.011,0
18:26 17,9 15,1 17,0 84,0 14,8 286 - 0,6 56 1.010,9
18:25 17,8 15,1 16,9 84,0 14,6 274 - 0,6 52 1.010,9
18:24 17,9 15,2 17,0 84,0 14,6 271 - 0,6 45 1.011,0
18:23 18,0 15,3 17,1 83,8 13,8 274 17,0 0,6 32 1.011,0
18:22 18,3 15,3 17,3 82,7 12,9 292 - 0,6 19 1.010,9
18:21 18,6 15,6 17,6 82,5 12,9 294 - 0,6 12 1.010,9
18:20 18,8 15,9 17,8 83,0 12,9 298 - 0,6 11 1.011,0
18:19 18,8 15,7 17,7 82,2 12,4 270 - 0,6 11 1.011,0
18:18 18,8 15,7 17,6 82,0 12,1 263 - 0,6 11 1.010,9
18:17 18,8 15,7 17,7 82,0 12,2 244 - 0,6 12 1.010,8
18:16 18,8 15,7 17,7 82,0 12,7 263 - 0,6 16 1.010,8
18:15 18,8 15,6 17,5 81,4 13,1 255 - 0,6 16 1.010,8
18:14 18,8 15,5 17,5 81,0 12,6 256 15,6 0,6 11 1.010,7
18:13 18,8 15,5 17,5 81,0 12,0 267 - 0,6 12 1.010,7
18:12 18,7 15,5 17,5 81,3 11,8 238 - 0,6 17 1.010,7
18:11 18,8 15,7 17,6 82,0 11,9 240 - 0,6 23 1.010,7
18:10 18,8 15,7 17,6 82,0 11,6 261 - 0,6 27 1.010,8
18:09 18,8 15,6 17,6 82,0 11,9 261 - 0,6 31 1.010,8
18:08 18,8 15,8 17,7 82,7 11,9 256 - 0,6 42 1.010,8
18:07 18,8 15,7 17,7 82,2 11,1 265 - 0,6 57 1.010,8
18:06 18,7 15,6 17,6 82,0 10,8 229 - 0,6 67 1.010,8
18:05 18,8 15,7 17,7 82,3 11,0 257 - 0,6 75 1.010,8
18:04 18,8 15,8 17,8 83,0 11,3 262 - 0,6 86 1.010,8
18:03 18,8 15,7 17,7 82,5 11,5 250 - 0,6 90 1.010,8
18:02 18,8 15,7 17,6 82,0 11,7 257 - 0,6 88 1.010,7
18:01 18,7 15,6 17,6 82,0 12,1 228 - 0,6 87 1.010,6
18:00 18,8 15,8 17,7 82,8 12,2 247 - 0,6 90 1.010,7
 
17:59 18,7 15,6 17,6 82,0 12,5 249 - 0,6 93 1.010,6
17:58 18,8 15,6 17,6 82,0 12,7 269 - 0,6 97 1.010,6
17:57 18,8 15,6 17,6 82,0 11,6 272 - 0,6 97 1.010,7
17:56 18,7 15,6 17,6 82,0 11,1 221 - 0,6 93 1.010,6
17:55 18,7 15,6 17,6 82,0 12,3 209 16,1 0,6 90 1.010,6
17:54 18,7 15,6 17,6 82,0 12,9 259 16,1 0,6 86 1.010,7
17:53 18,7 15,6 17,6 82,0 13,6 260 - 0,6 77 1.010,6
17:52 18,7 15,6 17,6 82,0 13,0 244 - 0,6 74 1.010,6
17:51 18,7 15,6 17,6 82,0 13,2 257 - 0,6 72 1.010,6
17:50 18,7 15,6 17,6 82,0 13,4 249 - 0,6 72 1.010,6
17:49 18,7 15,8 17,7 82,9 12,4 253 - 0,6 72 1.010,7
17:48 18,7 15,6 17,5 82,0 12,0 285 - 0,6 80 1.010,7
17:47 18,7 15,6 17,5 82,0 12,8 267 - 0,6 89 1.010,6
17:46 18,7 15,7 17,7 82,7 13,6 250 - 0,6 97 1.010,7
17:45 18,8 15,8 17,8 83,0 12,3 265 - 0,6 104 1.010,7
17:44 18,7 15,8 17,7 83,0 11,2 203 15,2 0,6 104 1.010,7
17:43 18,8 15,8 17,7 83,0 11,8 273 - 0,6 99 1.010,7
17:42 18,7 15,6 17,6 82,0 13,6 255 - 0,6 94 1.010,6
17:41 18,7 15,6 17,6 82,0 13,7 261 - 0,6 93 1.010,5
17:40 18,8 15,7 17,6 82,0 13,2 251 - 0,6 93 1.010,4
17:39 18,8 15,7 17,6 82,0 13,4 242 - 0,6 93 1.010,3
17:38 18,8 15,5 17,5 81,2 13,7 240 - 0,6 91 1.010,4
17:37 18,8 15,6 17,6 81,9 14,4 281 17,4 0,6 92 1.010,3
17:36 18,8 15,5 17,5 81,2 15,0 256 - 0,6 93 1.010,3
17:35 18,8 15,6 17,6 81,7 15,0 276 - 0,6 93 1.010,4
17:34 18,8 15,5 17,5 81,0 14,7 269 - 0,6 93 1.010,4
17:33 18,8 15,5 17,5 81,0 15,0 232 - 0,6 94 1.010,3
17:32 18,8 15,5 17,5 81,0 15,3 258 - 0,6 97 1.010,3
17:31 18,8 15,5 17,5 80,9 15,2 230 - 0,6 98 1.010,2
17:30 18,8 15,3 17,4 80,3 15,5 269 - 0,6 97 1.010,1
17:29 18,8 15,5 17,5 81,0 15,5 249 - 0,6 94 1.010,2
17:28 18,8 15,5 17,5 81,0 14,8 251 - 0,6 93 1.010,3
17:27 18,8 15,5 17,5 81,0 14,5 232 - 0,6 99 1.010,2
17:26 18,8 15,5 17,5 81,0 14,6 257 17,9 0,6 107 1.010,2
17:25 18,8 15,5 17,5 81,0 15,0 263 - 0,6 115 1.010,2
17:24 18,8 15,5 17,5 81,0 15,0 263 - 0,6 118 1.010,2
17:23 18,8 15,5 17,5 81,0 15,2 252 - 0,6 120 1.010,3
17:22 18,8 15,5 17,5 81,0 15,6 257 - 0,6 123 1.010,2
17:21 18,8 15,6 17,6 81,7 16,0 249 - 0,6 120 1.010,0
17:20 18,8 15,7 17,7 82,0 15,6 259 18,8 0,6 116 1.010,2
17:19 18,8 15,7 17,7 82,2 14,3 240 - 0,6 116 1.010,3
17:18 18,8 15,9 17,8 82,7 13,5 278 - 0,6 119 1.010,3
17:17 18,8 15,7 17,7 82,0 14,2 278 - 0,6 126 1.010,3
17:16 18,8 15,6 17,6 81,5 14,4 263 - 0,6 135 1.010,2
17:15 18,8 15,7 17,6 81,7 14,6 240 19,2 0,6 139 1.010,2
17:14 18,8 15,9 17,8 82,9 14,2 236 - 0,6 130 1.010,3
17:13 18,8 15,9 17,8 83,0 14,4 257 - 0,6 116 1.010,4
17:12 18,8 15,9 17,8 83,0 15,2 262 18,3 0,6 113 1.010,4
17:11 18,9 15,9 17,9 83,0 14,9 249 - 0,6 110 1.010,4
17:10 18,8 15,9 17,8 83,0 14,2 251 - 0,6 108 1.010,4
17:09 18,9 16,1 18,0 83,8 14,3 258 - 0,6 119 1.010,3
17:08 18,9 16,3 18,2 84,9 14,3 270 17,9 0,6 120 1.010,4
17:07 18,9 16,1 18,0 84,0 12,8 255 - 0,6 121 1.010,4
17:06 18,9 16,1 18,0 84,0 12,2 218 15,6 0,6 114 1.010,3
17:05 18,9 16,2 18,1 84,0 12,0 265 - 0,6 109 1.010,3
17:04 18,9 16,2 18,1 84,0 12,9 263 - 0,6 114 1.010,4
17:03 18,9 16,1 18,0 84,0 13,2 255 - 0,6 121 1.010,3
17:02 18,9 16,0 17,9 83,1 14,1 278 - 0,6 125 1.010,2
17:01 18,9 16,0 17,9 83,2 15,0 282 - 0,6 130 1.010,2
17:00 18,9 16,1 18,0 84,0 15,3 282 - 0,6 134 1.010,2
 
16:59 18,9 16,2 18,1 84,5 15,0 258 - 0,6 148 1.010,3
16:58 18,9 16,3 18,2 85,0 14,0 257 - 0,6 161 1.010,3
16:57 18,9 16,1 18,0 84,2 12,7 256 - 0,6 168 1.010,3
16:56 18,8 16,1 18,0 84,0 12,1 274 - 0,6 157 1.010,3
16:55 18,9 16,1 18,0 84,0 12,6 261 - 0,6 139 1.010,1
16:54 18,8 16,1 18,0 84,0 13,2 269 - 0,6 138 1.010,1
16:53 18,8 16,1 18,0 84,0 11,2 269 15,2 0,6 136 1.010,1
16:52 18,8 16,1 18,0 84,0 11,6 188 16,5 0,6 147 1.010,1
16:51 18,8 16,1 18,0 84,0 11,9 255 16,1 0,6 131 1.010,1
16:50 18,9 16,3 18,1 84,9 14,6 285 - 0,6 116 1.010,0
16:49 18,9 16,1 18,0 84,0 14,7 258 - 0,6 125 1.010,1
16:48 18,9 16,1 18,0 84,0 15,1 249 - 0,6 145 1.010,1
16:47 18,9 16,1 18,0 84,0 15,7 261 - 0,6 166 1.010,1
16:46 18,8 16,1 18,0 84,0 16,3 253 - 0,6 180 1.010,1
16:45 18,9 16,1 18,0 84,0 16,4 266 - 0,6 185 1.010,0
16:44 18,8 16,1 18,0 84,0 15,3 271 - 0,6 201 1.009,9
16:43 18,8 16,1 18,0 84,0 14,5 230 18,3 0,6 216 1.009,9
16:42 18,8 16,2 18,0 84,4 14,6 228 - 0,6 222 1.009,9
16:41 18,8 16,3 18,1 85,0 13,4 238 - 0,6 210 1.009,8
16:40 18,8 16,4 18,2 85,9 12,6 257 - 0,6 205 1.009,9
16:39 18,8 16,3 18,1 85,2 12,1 265 - 0,6 239 1.009,9
16:38 18,8 16,4 18,2 85,8 11,8 251 - 0,6 276 1.010,0
16:37 18,8 16,3 18,1 85,5 11,9 271 - 0,6 255 1.010,0
16:36 18,8 16,4 18,2 86,0 12,5 251 - 0,6 211 1.010,0
16:35 18,8 16,3 18,1 85,4 13,3 249 - 0,6 170 1.010,0
16:34 18,8 16,2 18,1 85,0 13,2 267 - 0,6 126 1.010,0
16:33 18,7 16,0 17,9 84,0 13,3 232 - 0,6 118 1.009,9
16:32 18,7 16,1 18,0 84,8 13,8 254 - 0,6 119 1.009,9
16:31 18,7 16,0 17,9 84,3 14,8 264 - 0,6 148 1.009,9
16:30 18,7 16,2 18,0 85,0 14,7 265 - 0,6 188 1.009,8
16:29 18,8 16,3 18,2 85,6 14,4 269 - 0,6 260 1.009,8
16:28 18,8 16,4 18,3 86,0 14,2 265 - 0,6 210 1.009,9
16:27 18,8 16,4 18,2 86,0 14,5 267 - 0,6 206 1.009,8
16:26 18,8 16,4 18,2 86,2 14,9 249 - 0,6 221 1.009,8
16:25 18,7 16,5 18,3 87,0 14,7 258 - 0,6 218 1.009,8
16:24 18,7 16,5 18,3 87,0 14,8 287 - 0,6 210 1.009,7
16:23 18,7 16,5 18,2 87,0 13,9 295 17,4 0,6 199 1.009,7
16:22 18,7 16,5 18,2 87,0 13,0 244 - 0,6 190 1.009,7
16:21 18,7 16,6 18,4 87,9 13,3 236 - 0,6 178 1.009,8
16:20 18,7 16,6 18,4 88,0 12,9 274 - 0,6 145 1.009,8
16:19 18,6 16,7 18,4 88,4 13,1 272 - 0,6 112 1.009,9
16:18 18,6 16,8 18,5 89,0 13,3 247 - 0,6 92 1.009,9
16:17 18,6 16,7 18,4 89,0 14,0 232 - 0,6 79 1.009,8
16:16 18,6 16,8 18,5 89,8 14,0 259 - 0,6 77 1.009,9
16:15 18,5 16,9 18,5 90,0 11,5 245 16,5 0,6 79 1.009,9
16:14 18,5 16,8 18,5 90,0 11,4 178 14,8 0,6 95 1.009,8
16:13 18,5 16,8 18,5 90,0 11,5 238 14,8 0,6 109 1.009,8
16:12 18,5 16,9 17,9 90,5 12,6 248 - 0,6 117 1.009,8
16:11 18,4 16,8 17,9 90,4 11,9 243 - 0,6 129 1.009,8
16:10 18,4 16,9 17,9 90,8 10,9 251 - 0,6 125 1.009,8
16:09 18,4 16,9 17,9 91,0 10,6 288 - 0,6 129 1.009,7
16:08 18,4 16,9 17,9 91,0 10,3 252 - 0,6 157 1.009,7
16:07 18,3 16,8 17,8 91,0 10,7 241 - 0,6 182 1.009,7
16:06 18,3 16,8 17,8 91,0 10,8 226 - 0,6 185 1.009,7
16:05 18,3 16,8 17,8 91,0 10,7 232 - 0,6 172 1.009,7
16:04 18,3 16,8 17,8 91,0 10,8 209 - 0,6 162 1.009,7
16:03 18,3 16,8 17,8 91,0 11,2 237 - 0,6 136 1.009,6
16:02 18,3 16,7 17,8 91,0 11,2 215 - 0,6 125 1.009,7
16:01 18,3 16,7 17,8 91,0 9,9 241 13,0 0,6 128 1.009,6
16:00 18,3 16,7 17,7 91,0 10,0 283 13,4 0,6 134 1.009,6
 
15:59 18,2 16,7 17,7 91,0 9,4 269 - 0,6 137 1.009,6
15:58 18,2 16,7 17,7 91,0 8,7 222 13,4 0,6 138 1.009,5
15:57 18,2 16,7 17,7 91,0 9,3 185 - 0,6 126 1.009,5
15:56 18,2 16,7 17,7 91,0 9,4 250 13,4 0,6 114 1.009,6
15:55 18,2 16,7 17,7 91,0 10,7 232 - 0,6 110 1.009,6
15:54 18,1 16,6 17,6 91,0 9,9 240 13,9 0,6 118 1.009,6
15:53 18,1 16,6 17,6 91,0 8,6 183 12,1 0,6 132 1.009,6
15:52 18,1 16,7 17,6 91,9 8,5 283 15,2 0,6 135 1.009,6
15:51 18,1 16,6 17,6 91,1 9,9 213 13,4 0,6 140 1.009,6
15:50 18,1 16,6 17,6 91,3 10,4 274 13,4 0,6 139 1.009,6
15:49 18,1 16,7 17,6 92,0 11,2 224 - 0,6 141 1.009,5
15:48 18,0 16,7 17,6 92,0 11,9 232 - 0,6 126 1.009,5
15:47 18,0 16,6 17,5 92,0 11,8 232 - 0,6 121 1.009,5
15:46 18,0 16,6 17,5 92,0 11,7 252 - 0,6 106 1.009,4
15:45 17,9 16,6 17,5 92,0 11,5 224 - 0,6 106 1.009,5
15:44 17,9 16,5 17,4 91,7 11,3 249 - 0,6 142 1.009,5
15:43 17,9 16,4 17,4 91,5 11,5 224 - 0,6 159 1.009,4
15:42 17,9 16,5 17,4 92,0 11,3 251 - 0,6 173 1.009,4
15:41 17,8 16,5 17,4 92,0 10,9 228 - 0,6 166 1.009,4
15:40 17,8 16,4 17,3 92,0 10,4 253 - 0,6 144 1.009,4
15:39 17,8 16,4 17,3 92,0 10,4 214 - 0,6 139 1.009,3
15:38 17,7 16,4 17,3 92,0 10,2 219 - 0,6 124 1.009,3
15:37 17,7 16,4 17,3 92,0 9,3 213 - 0,6 132 1.009,3
15:36 17,7 16,3 17,2 92,0 9,1 240 - 0,6 148 1.009,2
15:35 17,7 16,3 17,2 92,0 9,5 242 - 0,6 150 1.009,2
15:34 17,6 16,3 17,2 92,0 9,7 239 - 0,6 131 1.009,1
15:33 17,6 16,3 17,2 92,0 10,3 225 13,4 0,6 120 1.009,2
15:32 17,6 16,3 17,2 92,0 11,3 238 - 0,6 101 1.009,4
15:31 17,6 16,3 17,2 92,0 11,9 245 - 0,6 91 1.009,5
15:30 17,6 16,3 17,1 92,0 12,1 241 - 0,6 93 1.009,4
15:29 17,6 16,3 17,2 92,0 11,8 228 - 0,6 100 1.009,3
15:28 17,6 16,2 17,1 92,0 11,4 225 - 0,6 119 1.009,2
15:27 17,6 16,2 17,1 92,0 11,9 255 - 0,6 138 1.009,2
15:26 17,6 16,3 17,2 92,0 12,6 238 - 0,6 140 1.009,1
15:25 17,6 16,3 17,2 92,0 12,4 217 - 0,6 135 1.009,3
15:24 17,7 16,3 17,2 92,0 12,1 265 - 0,6 132 1.009,2
15:23 17,7 16,3 17,2 92,0 12,3 249 - 0,6 146 1.009,2
15:22 17,7 16,5 17,3 92,9 11,7 238 - 0,6 169 1.009,4
15:21 17,7 16,4 17,2 92,3 11,1 228 - 0,6 197 1.009,4
15:20 17,7 16,5 17,3 93,0 10,5 232 - 0,6 229 1.009,3
15:19 17,7 16,5 17,3 93,0 10,1 202 - 0,6 255 1.009,2
15:18 17,6 16,3 17,2 92,3 9,9 249 - 0,6 267 1.009,3
15:17 17,6 16,4 17,2 92,9 10,5 227 - 0,6 271 1.009,3
15:16 17,6 16,4 17,2 93,0 10,8 242 - 0,6 247 1.009,4
15:15 17,6 16,4 17,2 92,7 10,1 251 - 0,6 237 1.009,4
15:14 17,5 16,2 17,1 92,0 10,5 193 13,9 0,6 209 1.009,4
15:13 17,6 16,3 17,1 92,6 11,4 209 14,8 0,6 173 1.009,3
15:12 17,6 16,4 17,2 93,0 11,4 232 - 0,6 149 1.009,3
15:11 17,6 16,2 17,1 92,2 11,3 232 - 0,6 114 1.009,3
15:10 17,6 16,4 17,2 93,0 11,1 209 14,3 0,6 100 1.009,4
15:09 17,6 16,3 17,2 92,7 10,5 241 14,3 0,6 122 1.009,4
15:08 17,6 16,3 17,1 92,5 10,8 257 13,9 0,6 147 1.009,3
15:07 17,5 16,4 17,1 93,0 10,9 249 - 0,6 173 1.009,3
15:06 17,5 16,4 17,1 93,0 10,5 242 - 0,6 198 1.009,3
15:05 17,4 16,1 17,0 92,2 10,6 230 - 0,6 218 1.009,2
15:04 17,4 16,3 17,0 93,0 11,2 240 - 0,6 211 1.009,1
15:03 17,4 16,2 17,0 93,0 11,8 233 - 0,6 209 1.009,2
15:02 17,3 16,1 16,9 92,4 11,5 229 - 0,6 201 1.009,2
15:01 17,3 16,0 16,9 92,0 11,3 204 - 0,6 166 1.009,1
15:00 17,3 16,0 16,9 92,0 11,2 225 - 0,6 109 1.009,1
 
14:59 17,4 16,2 17,0 92,9 10,0 190 13,9 0,6 109 1.009,2
14:58 17,4 16,2 17,0 93,0 9,1 257 - 0,6 109 1.009,2
14:57 17,3 16,2 16,9 93,0 9,9 249 - 0,6 103 1.009,1
14:56 17,3 16,1 16,9 93,0 10,3 256 - 0,6 94 1.009,1
14:55 17,3 16,1 16,9 93,0 10,8 238 - 0,6 86 1.009,1
14:54 17,3 16,2 16,9 93,0 10,7 281 14,3 0,6 83 1.009,1
14:53 17,3 16,2 16,9 93,0 10,5 234 - 0,6 81 1.009,1
14:52 17,3 16,2 16,9 93,0 10,8 257 - 0,6 79 1.009,1
14:51 17,3 16,2 16,9 93,0 11,1 244 - 0,6 79 1.009,1
14:50 17,3 16,2 16,9 93,0 10,8 249 - 0,6 77 1.009,2
14:49 17,3 16,1 16,9 93,0 10,9 218 - 0,6 73 1.009,1
14:48 17,3 16,1 16,9 93,0 11,4 240 - 0,6 64 1.009,0
14:47 17,3 16,1 16,9 92,9 11,4 227 - 0,6 61 1.009,0
14:46 17,3 16,0 16,8 92,3 12,1 196 - 0,6 65 1.008,9
14:45 17,3 16,0 16,9 92,6 12,1 221 15,2 0,6 72 1.008,9
14:44 17,3 16,1 16,9 92,6 11,8 244 - 0,6 77 1.008,9
14:43 17,4 16,2 17,0 93,0 12,0 267 - 0,6 85 1.008,8
14:42 17,4 16,2 17,0 93,0 12,3 257 - 0,6 93 1.008,8
14:41 17,3 16,2 17,0 93,0 12,4 254 - 0,6 101 1.008,8
14:40 17,4 16,2 17,0 93,0 12,5 252 - 0,6 109 1.008,9
14:39 17,4 16,2 17,0 93,0 13,0 234 - 0,6 108 1.008,8
14:38 17,4 16,3 17,0 93,0 13,5 257 - 0,6 101 1.008,9
14:37 17,4 16,3 17,1 93,0 13,5 251 - 0,6 97 1.009,0
14:36 17,4 16,3 17,0 93,0 12,9 270 - 0,6 94 1.009,0
14:35 17,4 16,2 17,0 93,0 11,9 251 - 0,6 100 1.009,0
14:34 17,4 16,3 17,0 93,3 11,7 223 14,8 0,6 117 1.008,9
14:33 17,4 16,4 17,1 94,0 11,3 234 - 0,6 132 1.008,9
14:32 17,4 16,4 17,1 94,0 10,2 232 - 0,6 140 1.008,9
14:31 17,4 16,4 17,1 94,0 10,5 281 - 0,6 128 1.008,9
14:30 17,4 16,2 17,0 93,2 10,7 265 - 0,6 105 1.008,9
14:29 17,3 16,2 16,9 93,0 10,8 228 13,9 0,4 93 1.008,9
14:28 17,3 16,1 16,9 93,0 10,9 278 - 0,4 96 1.008,8
14:27 17,2 16,1 16,8 93,0 11,9 254 - 0,4 98 1.008,7
14:26 17,3 16,1 16,9 93,0 12,5 257 16,1 0,4 94 1.008,8
14:25 17,4 16,4 17,1 93,8 11,5 245 - 0,4 86 1.008,9
14:24 17,5 16,5 17,2 94,0 10,4 209 - 0,4 74 1.009,1
14:23 17,5 16,5 17,1 94,0 9,8 255 13,4 0,4 66 1.009,2
14:22 17,5 16,5 17,1 94,0 10,0 247 - 0,4 65 1.009,1
14:21 17,5 16,5 17,1 94,0 10,7 218 - 0,4 65 1.009,0
14:20 17,5 16,5 17,2 94,0 10,8 240 - 0,4 63 1.009,0
14:19 17,5 16,5 17,1 94,0 10,6 232 - 0,4 68 1.009,0
14:18 17,5 16,5 17,2 94,0 10,5 252 - 0,4 64 1.008,9
14:17 17,4 16,4 17,1 94,0 10,6 228 - 0,4 50 1.008,8
14:16 17,4 16,4 17,1 94,0 10,7 260 - 0,4 69 1.008,8
14:15 17,3 16,3 17,0 94,0 10,7 255 - 0,4 88 1.008,8
14:14 17,3 16,3 17,0 94,0 10,6 225 - 0,4 89 1.008,8
14:13 17,3 16,3 16,9 94,0 10,9 259 - 0,4 85 1.008,7
14:12 17,3 16,3 16,9 94,0 11,4 263 - 0,4 88 1.008,7
14:11 17,3 16,3 16,9 94,0 11,1 228 - 0,4 83 1.008,7
14:10 17,2 16,2 16,9 93,7 10,8 258 - 0,4 80 1.008,7
14:09 17,2 16,0 16,8 93,0 11,3 232 - 0,4 90 1.008,7
14:08 17,2 16,2 16,9 93,5 12,3 257 - 0,4 108 1.008,7
14:07 17,2 16,1 16,9 93,5 13,5 234 - 0,4 108 1.008,6
14:06 17,2 16,2 16,9 94,0 14,6 253 - 0,4 101 1.008,5
14:05 17,3 16,2 16,9 93,7 15,0 251 - 0,4 118 1.008,5
14:04 17,3 16,1 16,9 93,0 14,1 265 - 0,4 127 1.008,5
14:03 17,3 16,3 17,0 93,6 12,9 269 - 0,4 134 1.008,6
14:02 17,5 16,5 17,1 94,0 11,2 259 14,3 0,4 131 1.008,8
14:01 17,4 16,4 17,1 94,0 10,2 248 - 0,4 111 1.008,9
14:00 17,4 16,4 17,1 94,0 10,3 245 - 0,4 79 1.008,9
 
13:59 17,4 16,4 17,1 94,0 10,7 242 - 0,4 63 1.008,9
13:58 17,5 16,5 17,1 94,0 10,5 227 - 0,4 56 1.008,9
13:57 17,4 16,5 17,1 94,0 9,9 227 - 0,4 54 1.008,9
13:56 17,5 16,5 17,2 94,0 8,5 246 11,6 0,2 53 1.008,9
13:55 17,6 16,6 17,2 94,0 8,1 170 13,0 0,2 51 1.009,0
13:54 17,5 16,5 17,2 94,0 7,7 252 11,6 0,2 43 1.009,0
13:53 17,5 16,5 17,2 94,0 10,0 278 - 0,2 41 1.009,0
13:52 17,6 16,6 17,3 94,0 10,0 244 - 0,2 42 1.009,0
13:51 17,7 16,7 17,3 94,0 9,9 262 - 0,2 46 1.009,0
13:50 17,7 16,7 17,3 94,0 8,8 261 - 0,2 40 1.009,0
13:49 17,7 16,7 17,4 94,0 9,1 203 - 0,2 40 1.009,0
13:48 17,7 16,7 17,3 94,0 9,5 249 - 0,2 36 1.009,0
13:47 17,7 16,7 17,3 94,0 10,3 263 - 0,2 42 1.009,0
13:46 17,7 16,7 17,3 94,0 10,0 267 - 0,2 61 1.009,0
13:45 17,7 16,7 17,3 94,0 8,4 278 - 0,2 96 1.009,0
13:44 17,7 16,7 17,3 94,0 8,5 207 - 0,2 97 1.008,9
13:43 17,7 16,7 17,3 94,0 9,8 213 - 0,2 95 1.008,8
13:42 17,6 16,5 17,2 93,1 10,7 261 - 0,2 101 1.008,7
13:41 17,6 16,4 17,2 93,0 12,1 273 - 0,2 107 1.008,7
13:40 17,6 16,4 17,2 93,0 12,2 282 - 0,2 106 1.008,6
13:39 17,6 16,5 17,2 93,0 10,5 268 13,9 0,2 106 1.008,6
13:38 17,7 16,5 17,3 93,0 10,1 213 - 0,2 114 1.008,7
13:37 17,7 16,5 17,3 93,0 9,7 251 - 0,2 112 1.008,7
13:36 17,7 16,5 17,3 93,0 10,2 261 - 0,2 111 1.008,6
13:35 17,7 16,5 17,3 93,0 10,7 238 - 0,2 121 1.008,8
13:34 17,7 16,6 17,3 93,0 10,8 234 - 0,2 92 1.008,9
13:33 17,7 16,6 17,3 93,0 9,8 238 - 0,2 89 1.008,7
13:32 17,7 16,6 17,4 93,0 9,6 282 - 0,2 75 1.008,6
13:31 17,7 16,5 17,3 93,0 10,0 257 - 0,0 74 1.008,6
13:30 17,7 16,6 17,3 93,0 10,7 259 - 0,0 83 1.008,6
13:29 17,7 16,6 17,3 93,0 10,5 258 - 0,0 79 1.008,6
13:28 17,7 16,5 17,3 93,0 10,5 218 - 0,0 83 1.008,6
13:27 17,7 16,5 17,3 93,0 10,5 232 - 0,0 88 1.008,6
13:26 17,7 16,5 17,3 93,0 10,9 246 - 0,0 87 1.008,6
13:25 17,7 16,5 17,3 93,0 10,4 238 - 0,0 83 1.008,7
13:24 17,6 16,5 17,3 93,0 9,4 251 - 0,0 86 1.008,8
13:23 17,6 16,4 17,2 93,0 8,4 227 - 0,0 90 1.008,7
13:22 17,6 16,4 17,2 93,0 9,0 192 12,1 0,0 84 1.008,5
13:21 17,6 16,4 17,2 93,0 8,7 228 - 0,0 86 1.008,6
13:20 17,6 16,4 17,2 93,0 8,1 244 - 0,0 85 1.008,7
13:19 17,5 16,4 17,2 92,9 7,5 273 - 0,0 83 1.008,7
13:18 17,5 16,2 17,1 92,0 7,1 238 10,3 0,0 93 1.008,6
13:17 17,5 16,2 17,1 92,0 6,6 240 - 0,0 105 1.008,6
13:16 17,5 16,1 17,0 92,0 6,1 219 - 0,0 117 1.008,6
13:15 17,5 16,2 17,0 92,0 6,2 208 - 0,0 117 1.008,6
13:14 17,5 16,2 17,1 92,0 6,5 239 - 0,0 116 1.008,6
13:13 17,5 16,2 17,1 92,0 6,5 234 - 0,0 119 1.008,6
13:12 17,5 16,2 17,1 92,0 6,3 214 - 0,0 114 1.008,6
13:11 17,5 16,2 17,1 92,0 6,3 220 - 0,0 104 1.008,6
13:10 17,5 16,2 17,1 92,0 6,3 200 - 0,0 105 1.008,5
13:09 17,5 16,1 17,0 92,0 6,3 232 - 0,0 117 1.008,5
13:08 17,5 16,2 17,1 92,0 6,5 221 - 0,0 131 1.008,5
13:07 17,5 16,2 17,1 92,0 6,5 226 - 0,0 140 1.008,5
13:06 17,5 16,2 17,1 92,0 6,0 217 - 0,0 146 1.008,6
13:05 17,5 16,2 17,1 92,0 5,7 213 - 0,0 148 1.008,6
13:04 17,5 16,2 17,1 92,0 5,8 199 - 0,0 135 1.008,6
13:03 17,5 16,2 17,1 92,0 5,8 211 - 0,0 124 1.008,6
13:02 17,5 16,2 17,1 92,0 5,7 222 - 0,0 117 1.008,6
13:01 17,5 16,2 17,1 92,0 6,0 223 - 0,0 117 1.008,6
13:00 17,5 16,1 17,0 91,7 6,2 228 - 0,0 124 1.008,7
 
12:59 17,5 16,0 17,0 91,0 6,3 225 - 0,0 131 1.008,6
12:58 17,4 15,9 16,9 91,0 6,1 232 - 0,0 141 1.008,6
12:57 17,5 15,9 16,9 91,0 6,5 190 - 0,0 148 1.008,6
12:56 17,5 16,0 17,0 91,0 6,8 231 - 0,0 144 1.008,6
12:55 17,5 16,0 17,0 91,0 7,0 213 - 0,0 135 1.008,7
12:54 17,5 15,9 16,9 91,0 7,0 223 - 0,0 133 1.008,7
12:53 17,5 16,0 17,0 91,0 7,3 213 - 0,0 138 1.008,7
12:52 17,5 16,0 17,0 91,0 7,5 226 - 0,0 157 1.008,7
12:51 17,5 15,9 17,5 90,2 7,5 237 - 0,0 178 1.008,7
12:50 17,6 15,9 17,5 90,0 7,4 226 - 0,0 168 1.008,7
12:49 17,6 15,9 17,5 90,0 6,6 251 - 0,0 131 1.008,8
12:48 17,6 15,9 17,5 90,0 6,1 184 - 0,0 112 1.008,8
12:47 17,6 15,9 17,5 90,0 6,4 240 - 0,0 114 1.008,8
12:46 17,6 15,9 17,5 90,0 7,3 233 - 0,0 122 1.008,8
12:45 17,6 15,7 17,4 89,2 7,7 216 - 0,0 129 1.008,8
12:44 17,6 15,7 17,4 89,0 8,0 248 - 0,0 118 1.008,9
12:43 17,6 15,8 17,4 89,0 8,4 211 - 0,0 102 1.008,9
12:42 17,7 15,8 17,5 89,0 8,6 216 - 0,0 102 1.009,0
12:41 17,7 15,8 17,5 89,0 8,4 227 - 0,0 99 1.008,9
12:40 17,7 15,9 17,5 89,0 9,2 266 - 0,0 101 1.008,9
12:39 17,8 15,9 17,6 89,0 9,6 232 - 0,0 107 1.008,9
12:38 17,8 15,8 17,4 88,1 9,5 265 - 0,0 110 1.008,9
12:37 17,8 15,8 17,4 88,0 9,7 234 - 0,0 115 1.008,9
12:36 17,9 15,9 17,5 88,0 10,4 263 - 0,0 119 1.008,9
12:35 17,9 15,9 17,6 88,0 11,1 256 - 0,0 123 1.008,9
12:34 18,0 16,0 17,7 88,0 11,0 259 - 0,0 121 1.008,9
12:33 18,0 15,8 17,6 87,2 10,2 232 - 0,0 125 1.009,0
12:32 18,0 15,8 17,5 86,9 10,2 276 - 0,0 131 1.009,0
12:31 18,1 15,7 17,5 86,0 11,2 245 - 0,0 134 1.008,9
12:30 18,1 15,7 17,5 86,0 12,2 234 - 0,0 134 1.008,9
12:29 18,2 15,8 17,6 86,0 12,5 245 - 0,0 141 1.008,8
12:28 18,2 15,7 17,6 85,3 13,3 264 - 0,0 142 1.008,8
12:27 18,3 15,8 17,6 85,0 14,0 258 - 0,0 133 1.008,8
12:26 18,4 15,6 17,5 84,1 14,5 252 - 0,0 137 1.008,8
12:25 18,4 15,7 17,5 83,7 14,8 244 - 0,0 141 1.008,8
12:24 18,6 15,7 17,6 83,0 14,7 259 - 0,0 134 1.008,8
12:23 18,7 15,9 17,8 83,6 14,8 274 - 0,0 131 1.008,7
12:22 18,8 15,9 17,8 83,3 14,4 268 - 0,0 137 1.008,7
12:21 18,8 15,9 17,8 83,0 14,0 270 - 0,0 140 1.008,7
12:20 18,8 15,8 17,7 82,2 14,2 266 - 0,0 137 1.008,7
12:19 18,9 16,0 18,0 83,3 14,9 265 - 0,0 134 1.008,6
12:18 19,0 16,3 18,2 84,5 14,2 257 - 0,0 142 1.008,7
12:17 19,1 16,3 18,2 84,2 13,0 238 - 0,0 141 1.008,7
12:16 19,1 16,5 18,4 84,8 12,1 256 - 0,0 135 1.008,7
12:15 19,1 16,6 18,4 85,0 11,8 240 - 0,0 139 1.008,6
12:14 19,2 16,6 18,5 85,0 10,4 256 - 0,0 146 1.008,6
12:13 19,2 16,5 18,4 84,7 8,8 284 - 0,0 153 1.008,6
12:12 19,2 16,6 18,5 84,5 8,8 209 12,1 0,0 158 1.008,6
12:11 19,3 16,6 18,5 84,4 10,2 224 - 0,0 141 1.008,6
12:10 19,3 16,6 18,5 84,0 9,9 226 - 0,0 136 1.008,6
12:09 19,3 16,6 18,5 84,0 9,3 226 - 0,0 147 1.008,5
12:08 19,3 16,6 18,5 84,0 9,7 195 - 0,0 159 1.008,4
12:07 19,3 16,6 18,5 84,0 10,2 217 - 0,0 155 1.008,4
12:06 19,4 16,6 18,5 84,0 11,0 249 - 0,0 129 1.008,5
12:05 19,4 16,6 18,5 84,0 10,8 236 - 0,0 128 1.008,5
12:04 19,4 16,7 18,6 84,0 10,1 221 13,4 0,0 144 1.008,5
12:03 19,4 16,7 18,6 84,0 9,7 254 - 0,0 138 1.008,5
12:02 19,4 16,7 18,6 84,0 10,2 254 - 0,0 134 1.008,5
12:01 19,4 16,6 18,6 84,0 10,7 273 - 0,0 140 1.008,5
12:00 19,4 16,6 18,6 84,0 10,8 262 - 0,0 147 1.008,5
 
11:59 19,4 16,6 18,5 84,0 10,5 245 - 0,0 146 1.008,5
11:58 19,4 16,6 18,6 84,0 10,7 224 - 0,0 141 1.008,4
11:57 19,4 16,6 18,5 84,0 10,7 230 - 0,0 132 1.008,4
11:56 19,4 16,6 18,5 84,0 10,6 226 - 0,0 120 1.008,4
11:55 19,4 16,6 18,6 84,0 10,2 230 - 0,0 125 1.008,4
11:54 19,4 16,8 18,7 84,7 10,0 261 - 0,0 148 1.008,4
11:53 19,4 16,7 18,7 84,3 8,7 236 - 0,0 166 1.008,4
11:52 19,5 16,7 18,6 84,0 9,0 183 - 0,0 169 1.008,4
11:51 19,5 16,7 18,7 84,0 9,3 235 - 0,0 163 1.008,4
11:50 19,5 16,7 18,7 84,0 10,0 230 - 0,0 153 1.008,4
11:49 19,5 16,8 18,7 84,0 10,2 257 - 0,0 159 1.008,3
11:48 19,6 16,8 18,7 84,0 10,5 235 - 0,0 166 1.008,3
11:47 19,6 16,8 18,7 84,0 10,7 251 - 0,0 155 1.008,3
11:46 19,6 16,8 18,8 84,0 10,8 259 13,9 0,0 155 1.008,2
11:45 19,6 16,9 18,8 84,0 10,7 226 - 0,0 149 1.008,2
11:44 19,7 16,9 18,8 84,0 10,0 270 14,3 0,0 141 1.008,1
11:43 19,7 17,0 18,9 84,0 9,8 207 - 0,0 140 1.008,1
11:42 19,8 17,0 19,0 84,0 9,8 240 - 0,0 149 1.008,0
11:41 19,9 17,1 19,1 84,0 10,8 280 - 0,0 165 1.008,0
11:40 19,9 17,0 19,0 83,1 11,8 249 - 0,0 189 1.007,9
11:39 19,9 16,9 18,9 83,0 13,2 255 - 0,0 189 1.007,8
11:38 19,9 17,0 18,9 83,0 14,3 259 - 0,0 156 1.007,7
11:37 20,0 17,1 19,1 83,5 14,5 263 - 0,0 142 1.007,7
11:36 20,1 17,3 19,3 84,0 14,6 257 - 0,0 130 1.007,7
11:35 20,1 17,4 19,3 84,0 14,8 284 - 0,0 130 1.007,5
11:34 20,2 17,6 19,5 84,9 15,4 251 - 0,0 148 1.007,4
11:33 20,3 17,7 19,6 85,0 15,9 253 - 0,0 168 1.007,4
11:32 20,3 17,7 19,6 85,0 16,3 275 - 0,0 183 1.007,3
11:31 20,3 17,8 19,7 85,0 16,1 261 - 0,0 190 1.007,3
11:30 20,4 17,8 19,7 85,0 15,5 244 18,8 0,0 201 1.007,4
11:29 20,4 17,8 19,8 85,0 15,1 263 - 0,0 201 1.007,4
11:28 20,5 17,9 19,8 85,1 15,3 258 - 0,0 182 1.007,2
11:27 20,5 18,0 20,0 85,6 15,0 251 - 0,0 156 1.007,3
11:26 20,6 17,7 19,7 83,7 14,5 253 - 0,0 138 1.007,4
11:25 20,6 17,7 19,7 83,5 15,0 254 - 0,0 78 1.007,0
11:24 20,8 18,1 20,1 84,7 15,7 261 18,8 0,0 46 1.007,1
11:23 20,9 18,2 20,2 84,2 15,5 264 - 0,0 38 1.007,3
11:22 21,0 18,2 20,3 84,0 13,9 256 17,4 0,0 39 1.007,2
11:21 21,1 18,3 20,3 84,0 13,5 211 17,0 0,0 43 1.007,3
11:20 21,2 18,3 20,3 83,6 12,6 232 - 0,0 39 1.007,4
11:19 21,2 18,2 20,3 83,0 11,7 253 15,6 0,0 49 1.007,6
11:18 21,2 18,2 20,3 83,0 11,0 229 17,0 0,0 64 1.007,6
11:17 21,2 18,2 20,3 83,0 12,0 208 15,2 0,0 76 1.007,6
11:16 21,2 18,2 20,3 83,0 12,5 203 17,9 0,0 65 1.007,6
11:15 21,2 18,3 20,3 83,0 12,5 173 18,8 0,0 50 1.007,6
11:14 21,3 18,3 20,3 83,0 11,9 223 18,8 0,0 54 1.007,4
11:13 21,3 18,3 20,4 83,0 12,4 242 17,9 0,0 73 1.007,4
11:12 21,3 18,2 20,3 82,3 11,6 242 - 0,0 63 1.007,7
11:11 21,3 18,1 20,2 82,0 11,2 224 - 0,0 64 1.007,7
11:10 21,3 18,1 20,2 82,0 11,2 257 - 0,0 83 1.007,5
11:09 21,3 18,2 20,2 82,0 11,3 229 15,6 0,0 103 1.007,6
11:08 21,3 18,1 20,2 82,0 11,5 244 - 0,0 106 1.007,7
11:07 21,3 18,2 20,3 82,6 11,6 228 15,6 0,0 115 1.007,6
11:06 21,3 18,3 20,3 83,0 12,0 205 17,4 0,0 118 1.007,5
11:05 21,3 18,3 20,3 83,0 12,3 252 17,4 0,0 117 1.007,5
11:04 21,3 18,3 20,3 82,9 11,0 253 15,6 0,0 95 1.007,6
11:03 21,3 18,2 20,2 82,3 10,7 182 13,9 0,0 85 1.007,5
11:02 21,3 18,3 20,3 83,0 11,2 206 17,0 0,0 66 1.007,5
11:01 21,2 18,2 20,2 82,4 11,7 240 - 0,0 66 1.007,6
11:00 21,3 18,1 20,2 82,0 12,0 249 15,2 0,0 78 1.007,6
 
10:59 21,3 18,1 20,2 82,0 12,2 228 16,1 0,0 80 1.007,6
10:58 21,3 18,1 20,2 82,0 11,5 245 16,5 0,0 78 1.007,6
10:57 21,3 18,1 20,2 82,0 11,5 189 19,2 0,0 70 1.007,6
10:56 21,3 18,1 20,2 82,0 11,6 247 15,2 0,0 49 1.007,5
10:55 21,3 18,1 20,2 82,0 13,3 268 17,4 0,0 47 1.007,5
10:54 21,3 18,1 20,2 82,0 13,0 244 18,8 0,0 60 1.007,6
10:53 21,3 18,1 20,2 82,0 12,9 257 16,1 0,0 90 1.007,6
10:52 21,3 18,2 20,3 82,0 12,3 233 16,5 0,0 114 1.007,4
10:51 21,3 18,2 20,3 82,0 11,8 205 15,6 0,0 120 1.007,4
10:50 21,3 18,2 20,3 82,0 10,7 184 13,9 0,0 102 1.007,5
10:49 21,4 18,2 20,3 82,0 10,7 243 15,2 0,0 68 1.007,6
10:48 21,3 18,2 20,3 82,0 11,8 224 16,5 0,0 66 1.007,4
10:47 21,4 18,2 20,3 82,0 11,3 216 14,3 0,0 81 1.007,5
10:46 21,4 18,2 20,3 82,0 10,4 262 14,8 0,0 90 1.007,6
10:45 21,4 18,2 20,3 82,0 11,1 188 16,1 0,0 94 1.007,5
10:44 21,3 18,2 20,3 82,0 12,0 217 16,1 0,0 85 1.007,6
10:43 21,4 18,2 20,3 82,0 10,4 208 - 0,0 79 1.007,7
10:42 21,4 18,2 20,3 82,0 9,6 186 - 0,0 74 1.007,6
10:41 21,3 18,2 20,3 82,1 9,7 183 13,0 0,0 70 1.007,6
10:40 21,3 18,4 20,4 83,0 10,1 231 15,2 0,0 70 1.007,6
10:39 21,4 18,3 20,4 82,6 9,7 217 - 0,0 89 1.007,7
10:38 21,4 18,2 20,3 82,0 9,3 230 - 0,0 117 1.007,6
10:37 21,4 18,2 20,3 82,0 10,2 230 13,4 0,0 105 1.007,5
10:36 21,4 18,2 20,3 82,0 11,1 211 17,0 0,0 96 1.007,6
10:35 21,4 18,2 20,3 82,1 10,5 207 - 0,0 96 1.007,6
10:34 21,4 18,4 20,5 83,0 10,0 248 15,2 0,0 105 1.007,6
10:33 21,4 18,4 20,4 83,0 10,0 214 15,2 0,0 126 1.007,6
10:32 21,3 18,4 20,4 83,0 9,4 240 - 0,0 132 1.007,5
10:31 21,3 18,4 20,4 83,0 7,7 207 13,0 0,0 134 1.007,5
10:30 21,3 18,4 20,4 83,0 8,3 146 12,5 0,0 136 1.007,5
10:29 21,3 18,4 20,4 83,0 8,2 221 13,4 0,0 140 1.007,5
10:28 21,3 18,4 20,4 83,0 10,1 253 15,2 0,0 139 1.007,5
10:27 21,3 18,3 20,4 83,0 9,7 199 13,4 0,0 169 1.007,5
10:26 21,3 18,3 20,4 83,0 9,1 236 13,4 0,0 180 1.007,6
10:25 21,3 18,3 20,4 83,0 9,2 193 13,4 0,0 222 1.007,5
10:24 21,3 18,3 20,3 83,0 10,2 245 15,6 0,0 285 1.007,6
10:23 21,2 18,4 20,4 83,8 10,8 211 14,8 0,0 250 1.007,6
10:22 21,2 18,2 20,3 83,0 10,6 218 - 0,0 188 1.007,5
10:21 21,2 18,3 20,4 83,5 10,2 216 15,6 0,0 172 1.007,5
10:20 21,2 18,4 20,5 84,0 10,3 240 - 0,0 143 1.007,6
10:19 21,2 18,4 20,5 84,0 10,3 248 14,8 0,0 144 1.007,6
10:18 21,2 18,4 20,5 84,0 10,1 237 - 0,0 156 1.007,6
10:17 21,2 18,4 20,4 84,0 10,8 245 16,5 0,0 171 1.007,7
10:16 21,2 18,4 20,4 84,0 11,2 224 17,4 0,0 204 1.007,6
10:15 21,2 18,4 20,4 84,0 11,3 237 - 0,0 183 1.007,6
10:14 21,2 18,4 20,4 84,0 10,6 226 13,9 0,0 159 1.007,6
10:13 21,2 18,4 20,4 84,0 10,7 193 16,1 0,0 148 1.007,6
10:12 21,2 18,4 20,4 84,0 10,0 205 - 0,0 161 1.007,4
10:11 21,1 18,3 20,4 84,0 9,7 225 13,0 0,0 159 1.007,2
10:10 21,1 18,3 20,4 84,0 9,9 245 15,6 0,0 157 1.007,4
10:09 21,1 18,4 20,4 84,0 9,0 248 14,3 0,0 155 1.007,5
10:08 21,1 18,3 20,4 84,0 9,2 197 12,5 0,0 120 1.007,5
10:07 21,1 18,3 20,3 84,0 10,5 218 15,6 0,0 97 1.007,5
10:06 21,1 18,3 20,4 84,0 11,0 230 - 0,0 114 1.007,5
10:05 21,1 18,3 20,3 84,0 10,9 207 - 0,0 130 1.007,5
10:04 21,1 18,3 20,3 84,0 11,2 190 15,2 0,0 134 1.007,4
10:03 21,1 18,3 20,3 84,0 11,4 232 15,6 0,0 146 1.007,4
10:02 21,1 18,3 20,3 84,0 10,4 220 17,0 0,0 129 1.007,5
10:01 21,1 18,3 20,3 84,0 8,5 223 - 0,0 132 1.007,7
10:00 21,1 18,3 20,3 84,0 8,5 234 - 0,0 153 1.007,6
 
09:59 21,1 18,3 20,3 84,0 9,8 224 13,4 0,0 167 1.007,6
09:58 21,0 18,3 20,3 84,0 9,6 227 - 0,0 162 1.007,7
09:57 21,0 18,2 20,3 84,0 9,3 199 - 0,0 144 1.007,7
09:56 21,0 18,2 20,2 84,0 10,1 203 14,3 0,0 135 1.007,7
09:55 21,0 18,2 20,2 84,0 10,4 203 15,2 0,0 133 1.007,6
09:54 21,0 18,2 20,2 84,0 9,7 215 15,2 0,0 124 1.007,4
09:53 21,0 18,2 20,2 84,0 8,9 209 - 0,0 117 1.007,5
09:52 21,0 18,2 20,2 84,0 8,2 213 12,1 0,0 112 1.007,6
09:51 21,0 18,2 20,2 84,0 8,9 238 - 0,0 98 1.007,7
09:50 21,0 18,2 20,2 84,0 10,1 218 14,3 0,0 92 1.007,7
09:49 21,0 18,2 20,2 84,0 10,6 206 14,8 0,0 88 1.007,7
09:48 20,9 18,2 20,2 84,2 10,5 240 15,2 0,0 80 1.007,8
09:47 20,9 18,3 20,3 85,0 10,5 192 17,0 0,0 76 1.007,9
09:46 20,9 18,3 20,3 85,0 10,4 222 - 0,0 77 1.007,9
09:45 20,9 18,3 20,3 85,0 9,6 228 - 0,0 83 1.007,8
09:44 20,9 18,3 20,3 85,0 9,8 178 14,3 0,0 86 1.007,8
09:43 20,9 18,3 20,3 85,0 9,5 213 13,0 0,0 92 1.007,9
09:42 20,9 18,3 20,3 85,0 8,7 194 - 0,0 96 1.008,0
09:41 20,9 18,3 20,2 85,0 8,6 226 12,1 0,0 98 1.007,9
09:40 20,9 18,3 20,2 85,0 8,9 218 12,5 0,0 122 1.008,0
09:39 20,8 18,2 20,2 85,0 8,8 211 - 0,0 120 1.008,0
09:38 20,8 18,2 20,2 85,0 8,4 226 12,5 0,0 117 1.007,9
09:37 20,8 18,2 20,2 85,0 8,0 180 - 0,0 114 1.007,9
09:36 20,8 18,2 20,2 85,0 7,5 184 - 0,0 116 1.007,9
09:35 20,8 18,2 20,2 85,0 7,8 239 13,0 0,0 106 1.008,0
09:34 20,8 18,2 20,2 85,0 8,1 199 13,0 0,0 98 1.008,0
09:33 20,8 18,2 20,2 85,0 8,2 245 11,2 0,0 93 1.008,0
09:32 20,8 18,2 20,2 85,0 8,6 237 - 0,0 95 1.008,0
09:31 20,8 18,2 20,2 85,0 8,7 207 - 0,0 113 1.008,1
09:30 20,8 18,2 20,2 85,0 8,9 242 - 0,0 116 1.008,0
09:29 20,8 18,2 20,2 85,0 9,5 227 - 0,0 108 1.008,1
09:28 20,8 18,2 20,2 85,0 9,9 245 14,3 0,0 86 1.008,1
09:27 20,8 18,2 20,2 85,0 9,6 230 - 0,0 62 1.008,2
09:26 20,8 18,2 20,2 85,0 10,1 218 - 0,0 54 1.008,1
09:25 20,8 18,2 20,2 85,0 10,5 242 14,8 0,0 54 1.008,1
09:24 20,8 18,2 20,2 85,0 10,5 226 14,3 0,0 57 1.008,2
09:23 20,8 18,2 20,1 85,0 9,9 230 15,2 0,0 64 1.008,2
09:22 20,7 18,1 20,1 85,0 9,9 237 14,3 0,0 65 1.008,1
09:21 20,7 18,1 20,1 85,0 10,2 206 14,3 0,0 77 1.008,1
09:20 20,7 18,1 20,1 85,0 11,1 192 16,1 0,0 88 1.008,1
09:19 20,7 18,1 20,0 85,0 11,0 218 15,6 0,0 102 1.008,1
09:18 20,7 18,1 20,0 85,0 10,6 217 14,3 0,0 122 1.008,2
09:17 20,6 18,0 20,0 85,0 9,4 232 13,4 0,0 124 1.008,2
09:16 20,6 18,0 20,0 85,0 8,9 186 12,1 0,0 115 1.008,2
09:15 20,6 18,0 20,0 85,0 8,7 203 - 0,0 96 1.008,2
09:14 20,6 18,0 20,0 85,0 8,9 226 12,1 0,0 70 1.008,2
09:13 20,6 18,0 20,0 85,0 8,9 212 - 0,0 69 1.008,2
09:12 20,6 18,0 19,9 85,0 9,0 217 - 0,0 59 1.008,2
09:11 20,6 18,0 19,9 85,0 8,5 240 13,0 0,0 49 1.008,2
09:10 20,6 18,0 19,9 85,0 8,3 195 - 0,0 49 1.008,3
09:09 20,6 18,0 19,9 85,0 8,4 217 13,9 0,0 54 1.008,3
09:08 20,6 18,0 19,9 85,0 8,2 224 13,0 0,0 44 1.008,3
09:07 20,6 18,0 19,9 85,0 7,6 201 - 0,0 41 1.008,3
09:06 20,6 18,0 19,9 85,0 7,7 209 10,7 0,0 47 1.008,3
09:05 20,6 18,0 19,9 85,0 8,0 219 11,2 0,0 59 1.008,3
09:04 20,6 18,0 19,9 85,0 8,4 196 - 0,0 63 1.008,4
09:03 20,5 17,9 19,9 85,0 7,8 186 13,4 0,0 54 1.008,5
09:02 20,6 18,0 19,9 85,0 6,8 250 - 0,0 37 1.008,5
09:01 20,5 17,9 19,9 85,0 6,7 162 11,6 0,0 26 1.008,5
09:00 20,5 17,9 19,9 85,0 7,8 233 13,4 0,0 20 1.008,5
 
08:59 20,5 18,0 19,9 85,4 9,1 237 - 0,0 19 1.008,5
08:58 20,5 18,1 20,0 86,0 9,1 227 13,0 0,0 18 1.008,5
08:57 20,4 18,0 20,0 86,0 9,8 214 13,9 0,0 17 1.008,5
08:56 20,4 18,0 20,0 86,0 9,7 210 13,4 0,0 18 1.008,5
08:55 20,4 18,0 19,9 86,0 8,9 227 - 0,0 23 1.008,5
08:54 20,4 18,0 19,9 86,0 7,4 191 12,1 0,0 26 1.008,5
08:53 20,4 18,0 19,9 86,0 6,9 233 - 0,0 26 1.008,5
08:52 20,4 18,0 19,9 86,0 6,7 207 - 0,0 28 1.008,5
08:51 20,4 18,0 19,9 86,0 7,3 214 - 0,0 31 1.008,5
08:50 20,4 18,0 19,9 86,0 7,6 211 11,2 0,0 32 1.008,5
08:49 20,4 18,0 19,9 86,0 7,9 199 - 0,0 29 1.008,5
08:48 20,4 17,9 19,9 86,0 7,8 219 - 0,0 27 1.008,5
08:47 20,4 17,9 19,9 86,0 8,9 251 - 0,0 26 1.008,5
08:46 20,3 17,9 19,8 86,0 8,2 242 12,1 0,0 25 1.008,5
08:45 20,3 17,9 19,9 86,0 7,1 192 - 0,0 20 1.008,5
08:44 20,3 17,9 19,9 86,0 7,4 216 - 0,0 18 1.008,5
08:43 20,3 17,9 19,8 86,0 8,0 187 12,1 0,0 18 1.008,5
08:42 20,3 17,9 19,8 86,0 7,9 217 - 0,0 19 1.008,5
08:41 20,3 17,9 19,8 86,0 7,4 170 10,7 0,0 25 1.008,5
08:40 20,3 17,9 19,8 86,0 7,6 225 12,5 0,0 19 1.008,5
08:39 20,3 17,9 19,8 86,0 8,0 222 - 0,0 15 1.008,5
08:38 20,3 17,9 19,8 86,0 7,5 201 - 0,0 15 1.008,5
08:37 20,3 17,9 19,8 86,0 7,3 186 - 0,0 16 1.008,6
08:36 20,3 17,9 19,8 86,0 6,7 192 - 0,0 15 1.008,6
08:35 20,3 17,9 19,8 86,0 6,6 191 11,2 0,0 18 1.008,6
08:34 20,3 17,9 19,8 86,0 6,6 207 - 0,0 19 1.008,6
08:33 20,3 17,9 19,8 86,0 6,7 183 - 0,0 18 1.008,6
08:32 20,3 17,9 19,8 86,0 6,6 201 - 0,0 18 1.008,6
08:31 20,3 17,9 19,8 86,0 6,6 211 - 0,0 18 1.008,6
08:30 20,3 17,9 19,8 86,0 6,8 228 10,3 0,0 17 1.008,6
08:29 20,3 17,9 19,8 86,0 6,5 213 11,6 0,0 14 1.008,7
08:28 20,3 17,9 19,8 86,0 6,0 211 - 0,0 12 1.008,8
08:27 20,3 17,9 19,8 86,0 6,2 233 - 0,0 11 1.008,7
08:26 20,3 17,9 19,8 86,0 7,1 217 10,7 0,0 11 1.008,7
08:25 20,3 17,9 19,8 86,0 8,2 253 11,6 0,0 12 1.008,7
08:24 20,3 17,9 19,8 86,0 8,3 224 14,3 0,0 12 1.008,8
08:23 20,3 17,9 19,8 86,0 8,1 212 - 0,0 12 1.008,8
08:22 20,3 17,9 19,8 86,0 7,1 224 11,6 0,0 12 1.008,8
08:21 20,3 17,9 19,8 86,0 7,2 244 - 0,0 12 1.008,8
08:20 20,3 17,8 19,8 86,0 8,2 208 11,2 0,0 12 1.008,7
08:19 20,2 17,8 19,7 86,0 8,8 209 14,8 0,0 13 1.008,7
08:18 20,2 17,8 19,7 86,0 8,2 226 - 0,0 14 1.008,8
08:17 20,2 17,8 19,7 86,0 7,8 192 11,2 0,0 14 1.008,8
08:16 20,2 17,8 19,7 86,0 7,6 217 11,2 0,0 15 1.008,7
08:15 20,2 17,8 19,7 86,0 7,2 174 - 0,0 15 1.008,7
08:14 20,2 17,8 19,7 86,0 7,9 239 12,1 0,0 13 1.008,8
08:13 20,2 17,8 19,7 86,0 8,8 226 13,0 0,0 12 1.008,8
08:12 20,2 17,8 19,7 86,0 7,0 186 12,1 0,0 12 1.008,8
08:11 20,2 17,8 19,7 86,0 6,4 286 10,3 0,0 12 1.008,8
08:10 20,2 17,9 19,8 87,0 7,5 234 11,6 0,0 11 1.008,8
08:09 20,2 17,9 19,8 87,0 8,1 224 - 0,0 11 1.008,8
08:08 20,1 17,9 19,8 87,0 7,3 228 10,7 0,0 13 1.008,8
08:07 20,1 17,9 19,8 87,0 7,7 168 11,6 0,0 13 1.008,8
08:06 20,1 17,9 19,8 87,0 8,8 219 - 0,0 11 1.008,8
08:05 20,1 17,9 19,8 87,0 8,9 200 13,4 0,0 11 1.008,9
08:04 20,1 17,9 19,8 87,0 7,6 201 - 0,0 11 1.009,0
08:03 20,1 17,9 19,8 87,0 6,7 230 - 0,0 10 1.009,0
08:02 20,1 17,8 19,7 87,0 7,1 240 - 0,0 11 1.009,0
08:01 20,1 17,8 19,7 87,0 7,1 203 11,2 0,0 11 1.009,0
08:00 20,1 17,8 19,7 87,0 6,7 202 - 0,0 14 1.009,0
 
07:59 20,1 17,9 19,7 87,0 6,0 206 9,4 0,0 13 1.009,0
07:58 20,1 17,8 19,7 87,0 6,1 180 - 0,0 17 1.009,0
07:57 20,1 17,8 19,7 87,0 6,5 230 - 0,0 17 1.009,0
07:56 20,1 17,8 19,7 87,0 7,0 194 - 0,0 19 1.009,0
07:55 20,1 17,8 19,7 87,0 7,5 232 12,5 0,0 21 1.009,0
07:54 20,0 17,8 19,7 87,0 7,7 208 12,1 0,0 21 1.009,0
07:53 20,0 17,8 19,7 87,0 7,2 191 10,3 0,0 21 1.009,0
07:52 20,0 17,8 19,7 87,0 6,3 229 - 0,0 23 1.009,0
07:51 20,0 17,8 19,7 87,0 5,9 214 - 0,0 26 1.009,0
07:50 20,0 17,8 19,6 87,0 6,4 187 - 0,0 25 1.009,0
07:49 20,0 17,8 19,7 87,0 6,8 192 12,1 0,0 26 1.009,0
07:48 20,0 17,8 19,6 87,0 6,8 226 10,7 0,0 23 1.009,0
07:47 20,0 17,8 19,6 87,0 6,0 240 9,8 0,0 21 1.009,0
07:46 20,0 17,8 19,6 87,0 5,7 208 - 0,0 19 1.009,1
07:45 20,0 17,7 19,6 87,0 6,3 228 - 0,0 19 1.009,1
07:44 20,0 17,7 19,6 87,0 7,6 211 - 0,0 18 1.009,1
07:43 19,9 17,7 19,6 87,0 7,2 227 11,6 0,0 18 1.009,1
07:42 19,9 17,7 19,6 87,0 6,8 207 - 0,0 19 1.009,1
07:41 19,9 17,7 19,6 87,0 6,8 217 9,8 0,0 18 1.009,1
07:40 19,9 17,7 19,6 87,0 6,9 217 - 0,0 18 1.009,1
07:39 19,9 17,7 19,6 87,0 6,8 235 - 0,0 19 1.009,0
07:38 19,9 17,8 19,6 87,3 7,4 185 12,5 0,0 19 1.009,0
07:37 19,9 17,8 19,7 87,6 7,7 203 11,6 0,0 18 1.009,1
07:36 19,9 17,7 19,6 87,0 6,9 219 13,4 0,0 18 1.009,1
07:35 19,9 17,7 19,6 87,0 6,7 181 - 0,0 16 1.009,1
07:34 19,9 17,7 19,6 87,0 6,9 215 - 0,0 14 1.009,1
07:33 19,9 17,7 19,6 87,0 6,6 203 10,7 0,0 13 1.009,1
07:32 19,9 17,8 19,6 87,5 5,9 231 - 0,0 11 1.009,1
07:31 19,9 17,8 19,7 87,6 5,9 215 - 0,0 11 1.009,1
07:30 19,9 17,7 19,6 87,0 6,4 198 10,7 0,0 9 1.009,1
07:29 19,9 17,7 19,6 87,0 7,0 172 10,3 0,0 9 1.009,2
07:28 19,9 17,7 19,6 87,0 7,1 217 10,3 0,0 7 1.009,3
07:27 19,9 17,7 19,6 87,2 7,6 205 11,2 0,0 6 1.009,3
07:26 19,9 17,9 19,7 88,0 7,8 224 - 0,0 5 1.009,4
07:25 19,9 17,8 19,7 88,0 8,4 190 13,4 0,0 5 1.009,3
07:24 19,9 17,8 19,7 88,0 8,6 236 12,1 0,0 5 1.009,4
07:23 19,9 17,8 19,6 88,0 8,1 203 12,5 0,0 5 1.009,5
07:22 19,8 17,8 19,6 88,0 7,5 239 - 0,0 5 1.009,4
07:21 19,8 17,8 19,6 88,0 7,1 218 13,4 0,0 5 1.009,4
07:20 19,8 17,8 19,6 88,0 7,1 213 13,4 0,0 5 1.009,4
07:19 19,8 17,7 19,6 88,0 7,2 209 10,7 0,0 1 1.009,4
07:18 19,8 17,8 19,6 88,0 7,0 205 - 0,0 5 1.009,5
07:17 19,8 17,8 19,6 88,0 6,4 198 - 0,0 5 1.009,5
07:16 19,8 17,7 19,6 88,0 5,9 211 - 0,0 5 1.009,5
07:15 19,8 17,7 19,6 88,0 5,9 203 9,4 0,0 2 1.009,5
07:14 19,8 17,7 19,6 88,0 6,1 202 9,4 0,0 0 1.009,5
07:13 19,8 17,7 19,6 88,0 5,9 191 - 0,0 0 1.009,4
07:12 19,8 17,7 19,6 88,0 5,6 234 - 0,0 0 1.009,4
07:11 19,8 17,7 19,6 88,0 5,7 189 9,8 0,0 0 1.009,4
07:10 19,8 17,7 19,6 88,0 5,9 228 9,4 0,0 0 1.009,4
07:09 19,8 17,7 19,5 88,0 5,8 219 - 0,0 0 1.009,4
07:08 19,8 17,7 19,6 88,0 5,7 172 - 0,0 0 1.009,5
07:07 19,8 17,7 19,6 88,0 5,7 197 - 0,0 0 1.009,5
07:06 19,8 17,7 19,6 88,0 6,1 206 9,4 0,0 0 1.009,5
07:05 19,8 17,7 19,6 88,0 6,1 195 9,4 0,0 0 1.009,5
07:04 19,8 17,7 19,6 88,0 4,9 214 - 0,0 0 1.009,5
07:03 19,8 17,7 19,6 88,0 4,3 258 - 0,0 0 1.009,5
07:02 19,8 17,7 19,6 88,0 4,6 183 - 0,0 0 1.009,6
07:01 19,8 17,7 19,6 88,0 5,4 208 - 0,0 0 1.009,5
07:00 19,8 17,7 19,6 88,0 5,7 170 - 0,0 0 1.009,5
 
06:59 19,8 17,9 19,7 88,8 5,7 215 10,3 0,0 0 1.009,5
06:58 19,8 17,9 19,7 89,0 5,9 224 9,4 0,0 0 1.009,6
06:57 19,8 17,9 19,7 89,0 6,0 213 - 0,0 0 1.009,7
06:56 19,8 17,9 19,7 89,0 6,4 224 - 0,0 0 1.009,7
06:55 19,8 17,9 19,7 89,0 6,0 207 9,8 0,0 0 1.009,7
06:54 19,8 17,9 19,7 89,0 5,9 161 10,3 0,0 0 1.009,7
06:53 19,8 17,9 19,7 89,0 6,0 231 10,3 0,0 0 1.009,8
06:52 19,8 17,9 19,7 89,0 6,9 192 - 0,0 0 1.009,8
06:51 19,8 17,9 19,7 89,0 6,8 217 11,2 0,0 0 1.009,8
06:50 19,8 17,9 19,7 89,0 6,0 205 - 0,0 0 1.009,8
06:49 19,8 17,9 19,7 89,0 5,1 205 - 0,0 0 1.009,8
06:48 19,8 17,9 19,7 89,0 5,3 204 - 0,0 0 1.009,9
06:47 19,8 17,9 19,7 89,0 6,1 190 - 0,0 0 1.009,9
06:46 19,8 17,9 19,7 89,0 6,6 217 10,7 0,0 0 1.009,9
06:45 19,8 17,9 19,7 89,0 6,7 229 - 0,0 0 1.009,9
06:44 19,8 18,0 19,8 89,0 5,9 201 - 0,0 0 1.009,9
06:43 19,8 18,0 19,8 89,0 5,6 197 - 0,0 0 1.009,9
06:42 19,8 17,9 19,8 89,0 5,2 197 - 0,0 0 1.009,8
06:41 19,8 17,9 19,8 89,0 5,1 240 - 0,0 0 1.009,9
06:40 19,8 17,9 19,7 89,0 5,3 196 - 0,0 0 1.009,9
06:39 19,8 17,9 19,7 89,0 6,6 174 10,7 0,0 0 1.009,9
06:38 19,8 18,0 19,8 89,0 7,2 199 10,7 0,0 0 1.010,0
06:37 19,8 18,0 19,8 89,0 7,0 199 - 0,0 0 1.010,0
06:36 19,8 18,0 19,8 89,0 6,0 195 - 0,0 0 1.010,0
06:35 19,8 18,0 19,8 89,0 5,2 232 - 0,0 0 1.010,1
06:34 19,8 18,0 19,8 89,0 5,3 234 - 0,0 0 1.010,1
06:33 19,8 18,0 19,8 89,0 5,9 210 - 0,0 0 1.010,1
06:32 19,8 18,0 19,8 89,0 6,1 203 - 0,0 0 1.010,1
06:31 19,8 18,0 19,8 89,0 5,5 202 - 0,0 0 1.010,1
06:30 19,8 18,0 19,8 89,0 4,9 234 - 0,0 0 1.010,1
06:29 19,8 18,0 19,8 89,0 4,7 199 - 0,0 0 1.010,1
06:28 19,8 18,0 19,8 89,0 4,9 234 - 0,0 0 1.010,1
06:27 19,8 18,0 19,8 89,0 4,7 213 - 0,0 0 1.010,1
06:26 19,8 18,0 19,8 89,0 4,5 267 - 0,0 0 1.010,1
06:25 19,8 18,0 19,8 89,0 4,6 202 - 0,0 0 1.010,1
06:24 19,8 18,0 19,8 89,0 5,2 192 9,4 0,0 0 1.010,1
06:23 19,8 18,0 19,8 89,0 4,5 183 - 0,0 0 1.010,2
06:22 19,8 18,0 19,8 89,0 4,4 230 - 0,0 0 1.010,2
06:21 19,8 18,0 19,8 89,0 4,0 205 - 0,0 0 1.010,1
06:20 19,8 18,0 19,8 89,0 4,1 143 - 0,0 0 1.010,1
06:19 19,8 18,0 19,8 89,0 4,1 212 - 0,0 0 1.010,1
06:18 19,8 18,0 19,8 89,0 4,8 216 - 0,0 0 1.010,1
06:17 19,8 18,0 19,8 89,0 4,6 219 - 0,0 0 1.010,1
06:16 19,8 18,0 19,8 89,0 4,4 186 - 0,0 0 1.010,2
06:15 19,8 18,0 19,8 89,0 4,4 228 - 0,0 0 1.010,1
06:14 19,8 18,0 19,8 89,0 4,1 189 - 0,0 0 1.010,1
06:13 19,8 17,9 19,8 89,0 3,7 151 - 0,0 0 1.010,2
06:12 19,8 18,0 19,8 89,0 3,8 245 - 0,0 0 1.010,3
06:11 19,8 17,9 19,8 89,0 5,1 232 - 0,0 0 1.010,3
06:10 19,8 18,0 19,8 89,0 5,2 217 - 0,0 0 1.010,3
06:09 19,8 18,0 19,8 89,0 4,6 203 - 0,0 0 1.010,4
06:08 19,8 18,0 19,8 89,0 4,3 244 - 0,0 0 1.010,4
06:07 19,8 17,9 19,8 89,0 4,6 193 - 0,0 0 1.010,4
06:06 19,8 17,9 19,8 89,0 4,9 198 - 0,0 0 1.010,4
06:05 19,8 18,0 19,8 89,0 4,9 224 - 0,0 0 1.010,4
06:04 19,8 18,0 19,8 89,5 5,3 207 - 0,0 0 1.010,5
06:03 19,8 18,1 19,2 90,0 6,0 201 - 0,0 0 1.010,5
06:02 19,8 18,1 19,3 90,0 5,9 209 - 0,0 0 1.010,5
06:01 19,8 18,1 19,2 90,0 5,2 195 - 0,0 0 1.010,5
06:00 19,8 18,1 19,2 90,0 4,7 232 - 0,0 0 1.010,5
 
05:59 19,8 18,1 19,2 90,0 4,5 199 - 0,0 0 1.010,6
05:58 19,8 18,1 19,2 90,0 4,9 255 - 0,0 0 1.010,6
05:57 19,8 18,1 19,2 90,0 5,3 229 - 0,0 0 1.010,6
05:56 19,8 18,1 19,2 90,0 5,3 201 - 0,0 0 1.010,6
05:55 19,8 18,1 19,2 90,0 4,4 228 - 0,0 0 1.010,7
05:54 19,8 18,1 19,2 90,0 4,5 151 - 0,0 0 1.010,7
05:53 19,8 18,1 19,2 90,0 4,9 184 - 0,0 0 1.010,6
05:52 19,8 18,1 19,2 90,0 5,1 210 - 0,0 0 1.010,5
05:51 19,8 18,1 19,2 90,0 5,6 248 10,7 0,0 0 1.010,5
05:50 19,8 18,1 19,2 90,0 5,1 204 - 0,0 0 1.010,5
05:49 19,8 18,1 19,2 90,0 5,3 174 - 0,0 0 1.010,5
05:48 19,7 18,0 19,2 90,0 5,2 228 10,3 0,0 0 1.010,6
05:47 19,7 18,0 19,2 90,0 5,4 217 - 0,0 0 1.010,5
05:46 19,7 18,0 19,2 90,0 5,4 235 - 0,0 0 1.010,6
05:45 19,7 18,0 19,2 90,0 5,8 215 - 0,0 0 1.010,6
05:44 19,7 18,0 19,2 90,0 6,4 199 - 0,0 0 1.010,6
05:43 19,7 18,0 19,2 90,0 6,7 218 9,8 0,0 0 1.010,6
05:42 19,7 18,0 19,1 90,0 6,7 204 - 0,0 0 1.010,6
05:41 19,7 18,0 19,1 90,0 6,1 195 - 0,0 0 1.010,7
05:40 19,7 18,0 19,1 90,0 5,7 217 - 0,0 0 1.010,7
05:39 19,7 18,1 19,1 90,6 5,8 231 - 0,0 0 1.010,8
05:38 19,7 18,1 19,2 91,0 6,0 212 - 0,0 0 1.010,8
05:37 19,7 18,1 19,2 91,0 5,8 191 - 0,0 0 1.010,7
05:36 19,7 18,1 19,2 91,0 5,6 242 - 0,0 0 1.010,7
05:35 19,6 18,1 19,1 91,0 5,5 209 - 0,0 0 1.010,7
05:34 19,6 18,1 19,1 91,0 5,3 208 - 0,0 0 1.010,8
05:33 19,7 18,1 19,1 91,0 4,9 195 - 0,0 0 1.010,8
05:32 19,6 18,1 19,1 91,0 4,7 238 - 0,0 0 1.010,7
05:31 19,6 18,1 19,1 91,0 4,6 186 - 0,0 0 1.010,8
05:30 19,6 18,1 19,1 91,0 4,8 224 - 0,0 0 1.010,8
05:29 19,6 18,1 19,1 91,0 5,4 214 - 0,0 0 1.010,8
05:28 19,6 18,1 19,1 91,0 5,9 210 - 0,0 0 1.010,8
05:27 19,6 18,1 19,1 91,0 6,2 191 - 0,0 0 1.010,7
05:26 19,6 18,1 19,1 91,0 6,2 197 - 0,0 0 1.010,7
05:25 19,6 18,1 19,1 91,0 5,5 211 - 0,0 0 1.010,7
05:24 19,6 18,1 19,1 91,0 4,9 231 - 0,0 0 1.010,8
05:23 19,6 18,1 19,1 91,0 4,4 226 - 0,0 0 1.010,8
05:22 19,6 18,1 19,1 91,0 4,0 198 - 0,0 0 1.010,8
05:21 19,6 18,1 19,1 91,0 3,7 233 - 0,0 0 1.010,7
05:20 19,6 18,1 19,1 91,0 3,9 211 - 0,0 0 1.010,8
05:19 19,6 18,1 19,1 91,0 4,2 206 - 0,0 0 1.010,8
05:18 19,6 18,1 19,1 91,0 4,5 213 - 0,0 0 1.010,8
05:17 19,6 18,1 19,1 91,0 4,6 218 - 0,0 0 1.010,9
05:16 19,6 18,1 19,1 91,0 4,8 193 - 0,0 0 1.010,9
05:15 19,6 18,1 19,1 91,0 4,7 193 - 0,0 0 1.010,9
05:14 19,6 18,1 19,1 91,0 4,2 206 - 0,0 0 1.010,9
05:13 19,6 18,1 19,1 91,0 4,0 178 - 0,0 0 1.010,8
05:12 19,6 18,1 19,1 91,0 3,8 186 - 0,0 0 1.010,8
05:11 19,6 18,1 19,1 91,0 3,7 219 - 0,0 0 1.010,8
05:10 19,6 18,1 19,1 91,0 3,2 185 - 0,0 0 1.010,9
05:09 19,6 18,1 19,1 91,0 3,1 266 - 0,0 0 1.010,9
05:08 19,6 18,1 19,1 91,0 3,6 178 - 0,0 0 1.011,0
05:07 19,6 18,1 19,1 91,0 4,4 244 - 0,0 0 1.011,0
05:06 19,6 18,1 19,1 91,0 4,8 214 - 0,0 0 1.010,9
05:05 19,6 18,1 19,1 91,0 4,5 211 - 0,0 0 1.011,0
05:04 19,6 18,1 19,1 91,0 4,1 190 - 0,0 0 1.011,0
05:03 19,6 18,1 19,1 91,0 4,0 176 - 0,0 0 1.011,1
05:02 19,6 18,1 19,1 91,0 3,8 215 - 0,0 0 1.011,1
05:01 19,6 18,1 19,1 91,0 3,9 205 - 0,0 0 1.011,1
05:00 19,6 18,1 19,1 91,0 3,8 228 - 0,0 0 1.011,1
 
04:59 19,7 18,1 19,2 91,0 3,7 184 - 0,0 0 1.011,1
04:58 19,7 18,1 19,1 91,0 3,9 209 - 0,0 0 1.011,1
04:57 19,7 18,1 19,2 91,0 4,3 208 - 0,0 0 1.011,1
04:56 19,7 18,1 19,2 91,0 4,3 190 - 0,0 0 1.011,1
04:55 19,6 18,1 19,1 91,0 3,8 189 - 0,0 0 1.011,2
04:54 19,7 18,1 19,2 91,0 3,7 198 - 0,0 0 1.011,1
04:53 19,7 18,1 19,1 91,0 3,6 185 - 0,0 0 1.011,2
04:52 19,7 18,1 19,2 91,0 3,6 166 - 0,0 0 1.011,2
04:51 19,7 18,1 19,2 91,0 3,7 209 - 0,0 0 1.011,1
04:50 19,7 18,1 19,2 91,0 4,3 215 - 0,0 0 1.011,1
04:49 19,7 18,1 19,2 91,0 4,0 224 - 0,0 0 1.011,1
04:48 19,7 18,2 19,2 91,0 3,5 174 - 0,0 0 1.011,1
04:47 19,7 18,2 19,2 91,0 3,4 234 - 0,0 0 1.011,1
04:46 19,7 18,2 19,2 91,0 3,7 194 - 0,0 0 1.011,1
04:45 19,7 18,2 19,2 91,0 3,9 207 - 0,0 0 1.011,2
04:44 19,7 18,2 19,2 91,0 3,9 167 - 0,0 0 1.011,1
04:43 19,7 18,2 19,2 91,0 3,8 185 - 0,0 0 1.011,2
04:42 19,7 18,2 19,2 91,0 3,7 203 - 0,0 0 1.011,2
04:41 19,7 18,2 19,2 91,0 3,3 176 - 0,0 0 1.011,2
04:40 19,7 18,2 19,2 91,0 2,9 193 - 0,0 0 1.011,3
04:39 19,7 18,2 19,2 91,0 3,0 164 - 0,0 0 1.011,2
04:38 19,7 18,2 19,2 91,0 3,4 134 - 0,0 0 1.011,2
04:37 19,7 18,2 19,2 91,0 3,6 203 - 0,0 0 1.011,3
04:36 19,7 18,2 19,2 91,0 4,1 195 - 0,0 0 1.011,4
04:35 19,7 18,2 19,2 91,0 4,3 207 - 0,0 0 1.011,3
04:34 19,7 18,2 19,2 91,0 4,1 192 - 0,0 0 1.011,3
04:33 19,7 18,2 19,2 91,0 3,8 223 - 0,0 0 1.011,3
04:32 19,8 18,2 19,2 91,0 3,6 192 - 0,0 0 1.011,3
04:31 19,8 18,2 19,3 91,0 3,5 198 - 0,0 0 1.011,4
04:30 19,8 18,2 19,2 91,0 3,5 187 - 0,0 0 1.011,4
04:29 19,8 18,3 19,3 91,0 3,9 215 - 0,0 0 1.011,4
04:28 19,8 18,3 19,3 91,0 4,0 196 - 0,0 0 1.011,4
04:27 19,8 18,1 19,2 90,2 3,6 197 - 0,0 0 1.011,4
04:26 19,8 18,1 19,2 90,0 3,0 206 - 0,0 0 1.011,4
04:25 19,8 18,1 19,2 90,3 2,9 161 - 0,0 0 1.011,4
04:24 19,8 18,3 19,3 91,0 3,0 193 - 0,0 0 1.011,5
04:23 19,8 18,3 19,3 91,0 3,7 235 - 0,0 0 1.011,5
04:22 19,8 18,3 19,3 91,0 3,4 224 - 0,0 0 1.011,4
04:21 19,8 18,3 19,3 91,0 3,0 189 - 0,0 0 1.011,5
04:20 19,8 18,3 19,3 90,9 3,4 213 - 0,0 0 1.011,5
04:19 19,8 18,1 19,3 90,0 3,7 220 - 0,0 0 1.011,5
04:18 19,8 18,1 19,3 90,0 3,5 230 - 0,0 0 1.011,5
04:17 19,8 18,1 19,3 90,0 3,2 180 - 0,0 0 1.011,5
04:16 19,8 18,1 19,3 90,0 3,1 207 - 0,0 0 1.011,6
04:15 19,8 18,1 19,3 90,0 3,0 207 - 0,0 0 1.011,5
04:14 19,8 18,1 19,3 90,0 3,4 184 - 0,0 0 1.011,5
04:13 19,8 18,1 19,3 90,0 3,6 182 - 0,0 0 1.011,5
04:12 19,8 18,1 19,3 90,0 3,7 182 - 0,0 0 1.011,5
04:11 19,8 18,1 19,3 90,0 3,5 200 - 0,0 0 1.011,6
04:10 19,8 18,1 19,3 90,0 3,5 191 - 0,0 0 1.011,6
04:09 19,9 18,2 19,3 90,0 3,7 196 - 0,0 0 1.011,7
04:08 19,9 18,2 19,3 90,0 4,2 195 - 0,0 0 1.011,7
04:07 19,9 18,2 19,3 90,0 4,5 203 - 0,0 0 1.011,7
04:06 19,9 18,2 19,3 90,0 4,3 222 - 0,0 0 1.011,7
04:05 19,9 18,2 19,3 90,0 3,8 192 - 0,0 0 1.011,8
04:04 19,9 18,2 19,3 90,0 3,7 182 - 0,0 0 1.011,8
04:03 19,9 18,2 19,3 90,0 3,5 207 - 0,0 0 1.011,8
04:02 19,9 18,2 19,3 90,0 3,3 235 - 0,0 0 1.011,8
04:01 19,9 18,2 19,3 90,0 3,3 195 - 0,0 0 1.011,8
04:00 19,9 18,2 19,3 90,0 3,5 196 - 0,0 0 1.011,8
 
03:59 19,9 18,2 19,3 90,0 3,3 170 - 0,0 0 1.011,8
03:58 19,9 18,2 19,3 90,0 2,0 167 - 0,0 0 1.011,9
03:57 19,9 18,2 19,3 90,0 2,2 55 - 0,0 0 1.011,9
03:56 19,9 18,2 19,3 90,0 2,7 161 - 0,0 0 1.011,9
03:55 19,9 18,2 19,3 90,0 3,5 165 - 0,0 0 1.011,9
03:54 19,9 18,2 19,3 90,0 3,6 209 - 0,0 0 1.011,9
03:53 19,9 18,2 19,3 90,0 4,0 185 - 0,0 0 1.011,9
03:52 19,9 18,2 19,3 90,0 4,3 178 - 0,0 0 1.011,9
03:51 19,9 18,2 19,3 90,0 4,4 203 - 0,0 0 1.012,0
03:50 19,9 18,2 19,3 90,0 4,4 196 - 0,0 0 1.012,0
03:49 19,9 18,2 19,3 90,0 4,1 209 - 0,0 0 1.012,0
03:48 19,9 18,2 19,3 90,0 4,3 217 - 0,0 0 1.012,0
03:47 19,9 18,2 19,3 90,0 4,1 185 - 0,0 0 1.012,0
03:46 19,9 18,2 19,3 90,0 4,1 226 - 0,0 0 1.012,0
03:45 19,9 18,2 19,3 90,0 4,5 214 - 0,0 0 1.012,0
03:44 19,9 18,2 19,3 90,0 4,5 199 - 0,0 0 1.012,0
03:43 19,9 18,2 19,3 90,0 4,4 255 - 0,0 0 1.012,0
03:42 19,9 18,2 19,3 90,0 4,4 184 - 0,0 0 1.012,0
03:41 19,9 18,2 19,3 90,0 4,9 211 - 0,0 0 1.012,0
03:40 19,9 18,2 19,3 90,0 4,7 170 - 0,0 0 1.012,0
03:39 19,9 18,2 19,3 90,0 5,0 210 - 0,0 0 1.012,0
03:38 19,9 18,2 19,3 90,0 5,2 202 - 0,0 0 1.012,0
03:37 19,9 18,2 19,3 90,0 5,3 180 - 0,0 0 1.012,0
03:36 19,9 18,2 19,3 90,0 5,0 203 - 0,0 0 1.012,1
03:35 19,9 18,2 19,3 90,0 4,7 201 - 0,0 0 1.012,1
03:34 19,9 18,2 19,3 90,0 4,6 181 - 0,0 0 1.012,1
03:33 19,9 18,2 19,3 90,0 5,0 228 - 0,0 0 1.012,1
03:32 19,9 18,2 19,3 90,0 5,3 210 - 0,0 0 1.012,1
03:31 19,9 18,2 19,3 90,0 5,3 198 - 0,0 0 1.012,1
03:30 19,9 18,2 19,3 90,0 4,9 203 - 0,0 0 1.012,1
03:29 19,9 18,2 19,3 90,0 4,3 234 - 0,0 0 1.012,1
03:28 19,9 18,2 19,3 90,0 4,0 186 - 0,0 0 1.012,1
03:27 19,9 18,2 19,3 90,0 4,4 188 - 0,0 0 1.012,0
03:26 19,9 18,2 19,3 90,0 4,6 230 - 0,0 0 1.012,1
03:25 19,9 18,2 19,3 90,0 4,7 223 - 0,0 0 1.012,1
03:24 19,8 18,1 19,3 90,0 4,6 230 - 0,0 0 1.012,1
03:23 19,9 18,2 19,3 90,0 5,2 199 - 0,0 0 1.012,2
03:22 19,9 18,2 19,3 90,0 5,7 210 - 0,0 0 1.012,2
03:21 19,8 18,1 19,3 90,0 5,4 209 - 0,0 0 1.012,2
03:20 19,9 18,2 19,3 90,0 4,9 208 - 0,0 0 1.012,2
03:19 19,9 18,2 19,3 90,0 4,6 236 - 0,0 0 1.012,2
03:18 19,8 18,1 19,3 90,0 5,0 183 - 0,0 0 1.012,2
03:17 19,9 18,2 19,3 90,0 5,5 193 - 0,0 0 1.012,3
03:16 19,8 18,1 19,3 90,0 5,1 192 - 0,0 0 1.012,3
03:15 19,8 18,1 19,3 90,0 5,0 230 - 0,0 0 1.012,3
03:14 19,8 18,1 19,3 90,0 4,8 203 - 0,0 0 1.012,3
03:13 19,8 18,1 19,3 90,0 4,9 174 - 0,0 0 1.012,3
03:12 19,8 18,1 19,3 90,0 5,0 197 - 0,0 0 1.012,4
03:11 19,8 18,1 19,3 90,0 5,1 195 - 0,0 0 1.012,3
03:10 19,8 18,1 19,3 90,0 5,3 203 - 0,0 0 1.012,4
03:09 19,8 18,1 19,3 90,0 5,6 226 - 0,0 0 1.012,4
03:08 19,8 18,1 19,3 90,0 5,8 206 - 0,0 0 1.012,4
03:07 19,8 18,1 19,3 90,0 6,4 202 - 0,0 0 1.012,4
03:06 19,8 18,1 19,3 90,0 6,8 203 9,8 0,0 0 1.012,4
03:05 19,8 18,1 19,3 90,0 6,4 203 9,8 0,0 0 1.012,4
03:04 19,8 18,1 19,3 90,0 5,3 212 - 0,0 0 1.012,5
03:03 19,8 18,1 19,3 90,0 5,2 230 - 0,0 0 1.012,5
03:02 19,8 18,1 19,3 90,0 5,6 213 - 0,0 0 1.012,5
03:01 19,8 18,1 19,3 90,0 5,9 189 - 0,0 0 1.012,6
03:00 19,8 18,1 19,2 90,0 5,5 228 - 0,0 0 1.012,6
 
02:59 19,8 18,1 19,3 90,0 5,0 193 - 0,0 0 1.012,6
02:58 19,8 18,1 19,3 90,0 4,7 208 - 0,0 0 1.012,6
02:57 19,8 18,1 19,3 90,0 4,5 208 - 0,0 0 1.012,7
02:56 19,8 18,1 19,3 90,0 5,0 199 - 0,0 0 1.012,7
02:55 19,8 18,1 19,3 90,0 5,4 200 9,4 0,0 0 1.012,7
02:54 19,8 18,1 19,3 90,0 5,5 238 - 0,0 0 1.012,7
02:53 19,8 18,1 19,3 90,0 5,2 211 - 0,0 0 1.012,7
02:52 19,8 18,1 19,3 90,0 5,1 191 - 0,0 0 1.012,7
02:51 19,8 18,1 19,3 90,0 4,9 191 - 0,0 0 1.012,7
02:50 19,8 18,1 19,3 90,0 5,2 209 - 0,0 0 1.012,7
02:49 19,8 18,1 19,3 90,0 5,7 195 - 0,0 0 1.012,7
02:48 19,8 18,1 19,3 90,0 5,8 198 - 0,0 0 1.012,7
02:47 19,8 18,1 19,3 90,0 5,7 221 - 0,0 0 1.012,7
02:46 19,8 18,1 19,3 90,0 5,6 209 - 0,0 0 1.012,7
02:45 19,8 18,1 19,3 90,0 5,6 202 - 0,0 0 1.012,7
02:44 19,8 18,1 19,3 90,0 5,3 203 - 0,0 0 1.012,8
02:43 19,8 18,1 19,3 90,0 5,3 230 - 0,0 0 1.012,8
02:42 19,8 18,1 19,3 90,0 5,4 229 - 0,0 0 1.012,8
02:41 19,8 18,1 19,3 90,0 5,5 197 - 0,0 0 1.012,8
02:40 19,8 18,1 19,3 90,0 5,4 192 - 0,0 0 1.012,8
02:39 19,8 18,1 19,3 90,0 5,0 206 - 0,0 0 1.012,8
02:38 19,9 18,2 19,3 90,0 4,7 212 - 0,0 0 1.012,7
02:37 19,9 18,2 19,3 90,0 4,9 228 - 0,0 0 1.012,7
02:36 19,9 18,2 19,3 90,0 5,2 210 - 0,0 0 1.012,8
02:35 19,9 18,2 19,3 90,0 4,9 211 - 0,0 0 1.012,8
02:34 19,9 18,2 19,3 90,0 4,4 168 - 0,0 0 1.012,8
02:33 19,9 18,2 19,3 90,0 3,9 211 - 0,0 0 1.012,8
02:32 19,9 18,2 19,3 90,0 4,7 232 - 0,0 0 1.012,8
02:31 19,9 18,2 19,3 90,0 5,3 225 - 0,0 0 1.012,8
02:30 19,9 18,2 19,3 90,0 5,2 200 - 0,0 0 1.012,8
02:29 19,9 18,2 19,3 90,0 4,6 222 - 0,0 0 1.012,9
02:28 19,9 18,2 19,3 90,0 4,8 190 - 0,0 0 1.012,9
02:27 19,9 18,2 19,3 90,0 5,1 212 - 0,0 0 1.012,9
02:26 19,9 18,2 19,3 90,0 5,0 178 - 0,0 0 1.012,9
02:25 19,9 18,2 19,3 90,0 4,9 170 - 0,0 0 1.012,9
02:24 19,8 18,1 19,3 90,0 4,4 203 - 0,0 0 1.012,9
02:23 19,9 18,2 19,3 90,0 4,5 206 - 0,0 0 1.012,8
02:22 19,8 18,1 19,3 90,0 4,7 208 - 0,0 0 1.012,8
02:21 19,8 18,1 19,3 90,0 5,0 190 - 0,0 0 1.012,8
02:20 19,8 18,1 19,3 90,0 4,9 200 - 0,0 0 1.012,8
02:19 19,9 18,2 19,3 90,0 4,8 208 - 0,0 0 1.012,8
02:18 19,8 18,1 19,3 90,0 4,5 213 - 0,0 0 1.012,8
02:17 19,8 18,1 19,3 90,0 4,5 196 - 0,0 0 1.012,8
02:16 19,8 18,1 19,3 90,0 4,6 186 - 0,0 0 1.012,8
02:15 19,8 18,1 19,3 90,0 4,4 169 - 0,0 0 1.012,9
02:14 19,8 18,1 19,3 90,0 4,1 213 - 0,0 0 1.012,9
02:13 19,8 18,1 19,3 90,0 4,6 238 - 0,0 0 1.012,9
02:12 19,8 18,1 19,3 90,0 4,8 207 - 0,0 0 1.012,9
02:11 19,8 18,1 19,3 90,0 4,9 200 - 0,0 0 1.013,0
02:10 19,8 18,1 19,3 90,0 4,8 201 - 0,0 0 1.013,0
02:09 19,8 18,1 19,3 90,0 4,6 220 - 0,0 0 1.013,0
02:08 19,8 18,1 19,3 90,0 4,2 193 - 0,0 0 1.013,0
02:07 19,8 18,3 19,3 90,8 4,2 190 - 0,0 0 1.013,0
02:06 19,8 18,3 19,3 91,0 4,5 207 - 0,0 0 1.013,0
02:05 19,8 18,3 19,3 91,0 4,6 183 - 0,0 0 1.013,0
02:04 19,8 18,3 19,3 91,0 4,6 201 - 0,0 0 1.013,0
02:03 19,8 18,3 19,3 91,0 4,8 200 - 0,0 0 1.012,9
02:02 19,8 18,3 19,3 91,0 5,0 201 - 0,0 0 1.012,9
02:01 19,8 18,3 19,3 91,0 5,1 215 - 0,0 0 1.012,9
02:00 19,8 18,3 19,3 91,0 4,7 208 - 0,0 0 1.012,9
 
01:59 19,8 18,3 19,3 91,0 4,1 241 - 0,0 0 1.012,9
01:58 19,8 18,3 19,3 91,0 4,0 184 - 0,0 0 1.012,9
01:57 19,8 18,3 19,3 91,0 4,1 201 - 0,0 0 1.012,9
01:56 19,8 18,3 19,3 91,0 3,9 204 - 0,0 0 1.012,9
01:55 19,8 18,3 19,3 91,0 4,1 192 - 0,0 0 1.012,9
01:54 19,8 18,3 19,3 91,0 4,3 173 - 0,0 0 1.012,9
01:53 19,8 18,3 19,3 91,0 3,9 184 - 0,0 0 1.013,0
01:52 19,8 18,3 19,3 91,0 3,8 230 - 0,0 0 1.013,0
01:51 19,8 18,3 19,3 91,0 4,2 190 - 0,0 0 1.013,0
01:50 19,8 18,3 19,3 91,0 4,6 214 - 0,0 0 1.013,0
01:49 19,8 18,3 19,3 91,0 4,6 215 - 0,0 0 1.013,0
01:48 19,8 18,3 19,3 91,0 4,5 219 - 0,0 0 1.013,0
01:47 19,8 18,3 19,3 91,0 4,1 198 - 0,0 0 1.013,1
01:46 19,8 18,3 19,3 91,0 3,8 210 - 0,0 0 1.013,1
01:45 19,8 18,3 19,3 91,0 3,7 189 - 0,0 0 1.013,1
01:44 19,8 18,3 19,3 91,0 3,8 192 - 0,0 0 1.013,0
01:43 19,8 18,3 19,3 91,0 3,5 181 - 0,0 0 1.013,1
01:42 19,8 18,3 19,3 91,0 3,6 204 - 0,0 0 1.013,1
01:41 19,8 18,3 19,3 91,0 4,0 207 - 0,0 0 1.013,1
01:40 19,8 18,3 19,3 91,0 3,9 192 - 0,0 0 1.013,1
01:39 19,8 18,3 19,3 91,0 3,7 195 - 0,0 0 1.013,1
01:38 19,8 18,3 19,3 91,0 3,9 211 - 0,0 0 1.013,2
01:37 19,8 18,3 19,3 91,0 4,1 190 - 0,0 0 1.013,3
01:36 19,8 18,3 19,3 91,0 4,3 203 - 0,0 0 1.013,3
01:35 19,8 18,3 19,3 91,0 4,3 213 - 0,0 0 1.013,3
01:34 19,8 18,3 19,3 91,0 4,8 211 - 0,0 0 1.013,4
01:33 19,8 18,3 19,3 91,0 5,0 200 - 0,0 0 1.013,3
01:32 19,8 18,3 19,3 91,0 4,9 185 - 0,0 0 1.013,3
01:31 19,8 18,2 19,3 91,0 4,6 201 - 0,0 0 1.013,3
01:30 19,8 18,2 19,3 91,0 4,5 199 - 0,0 0 1.013,3
01:29 19,7 18,2 19,2 91,0 4,0 197 - 0,0 0 1.013,3
01:28 19,8 18,2 19,2 91,0 3,8 247 - 0,0 0 1.013,2
01:27 19,7 18,2 19,2 91,0 4,3 199 - 0,0 0 1.013,2
01:26 19,7 18,2 19,2 91,0 4,8 189 - 0,0 0 1.013,3
01:25 19,7 18,2 19,2 91,0 4,4 213 - 0,0 0 1.013,3
01:24 19,7 18,2 19,2 91,0 3,8 207 - 0,0 0 1.013,3
01:23 19,7 18,2 19,2 91,0 4,0 224 - 0,0 0 1.013,3
01:22 19,7 18,2 19,2 91,0 4,6 209 - 0,0 0 1.013,3
01:21 19,7 18,2 19,2 91,0 4,7 217 - 0,0 0 1.013,4
01:20 19,7 18,2 19,2 91,0 3,9 188 - 0,0 0 1.013,4
01:19 19,7 18,2 19,2 91,0 3,5 230 - 0,0 0 1.013,4
01:18 19,7 18,2 19,2 91,0 3,7 207 - 0,0 0 1.013,4
01:17 19,7 18,2 19,2 91,0 4,5 195 - 0,0 0 1.013,5
01:16 19,7 18,2 19,2 91,0 4,4 206 - 0,0 0 1.013,5
01:15 19,7 18,2 19,2 91,0 3,6 201 - 0,0 0 1.013,5
01:14 19,7 18,2 19,2 91,0 3,5 153 - 0,0 0 1.013,5
01:13 19,7 18,2 19,2 91,0 4,4 150 - 0,0 0 1.013,5
01:12 19,7 18,2 19,2 91,0 4,0 143 - 0,0 0 1.013,5
01:11 19,7 18,2 19,2 91,0 3,7 218 - 0,0 0 1.013,6
01:10 19,7 18,2 19,2 91,0 4,2 223 - 0,0 0 1.013,6
01:09 19,7 18,2 19,2 91,0 4,3 168 - 0,0 0 1.013,6
01:08 19,7 18,2 19,2 91,0 4,3 201 - 0,0 0 1.013,6
01:07 19,7 18,2 19,2 91,0 3,8 182 - 0,0 0 1.013,7
01:06 19,7 18,2 19,2 91,0 3,7 195 - 0,0 0 1.013,7
01:05 19,7 18,1 19,2 91,0 4,4 213 - 0,0 0 1.013,7
01:04 19,7 18,2 19,2 91,0 5,0 196 - 0,0 0 1.013,7
01:03 19,7 18,2 19,2 91,0 4,6 201 - 0,0 0 1.013,7
01:02 19,7 18,1 19,2 91,0 3,5 201 - 0,0 0 1.013,7
01:01 19,7 18,1 19,2 91,0 2,9 186 - 0,0 0 1.013,7
01:00 19,7 18,2 19,2 91,0 2,9 211 - 0,0 0 1.013,7
 
00:59 19,7 18,1 19,2 91,0 3,2 208 - 0,0 0 1.013,7
00:58 19,7 18,2 19,2 91,0 3,5 216 - 0,0 0 1.013,7
00:57 19,7 18,1 19,2 91,0 3,6 225 - 0,0 0 1.013,8
00:56 19,7 18,2 19,2 91,0 3,4 208 - 0,0 0 1.013,7
00:55 19,7 18,2 19,2 91,0 3,6 197 - 0,0 0 1.013,8
00:54 19,7 18,2 19,2 91,0 3,6 218 - 0,0 0 1.013,8
00:53 19,7 18,2 19,2 91,0 3,6 172 - 0,0 0 1.013,9
00:52 19,7 18,2 19,2 91,0 4,0 186 - 0,0 0 1.013,9
00:51 19,7 18,2 19,2 91,0 4,6 202 - 0,0 0 1.013,9
00:50 19,7 18,2 19,2 91,0 4,5 195 - 0,0 0 1.013,9
00:49 19,7 18,2 19,2 91,0 4,2 219 - 0,0 0 1.013,9
00:48 19,7 18,2 19,2 91,0 4,1 192 - 0,0 0 1.013,9
00:47 19,7 18,2 19,2 91,0 4,5 219 - 0,0 0 1.013,9
00:46 19,7 18,2 19,2 91,0 4,5 195 - 0,0 0 1.013,9
00:45 19,7 18,2 19,2 91,0 4,2 214 - 0,0 0 1.013,9
00:44 19,7 18,2 19,2 91,0 4,1 204 - 0,0 0 1.013,9
00:43 19,7 18,2 19,2 91,0 4,3 213 - 0,0 0 1.014,0
00:42 19,7 18,2 19,2 91,0 4,0 197 - 0,0 0 1.013,9
00:41 19,7 18,2 19,2 91,0 3,5 190 - 0,0 0 1.013,9
00:40 19,7 18,2 19,2 91,0 3,3 203 - 0,0 0 1.013,9
00:39 19,7 18,2 19,2 91,0 3,3 213 - 0,0 0 1.014,0
00:38 19,7 18,2 19,2 91,0 3,4 202 - 0,0 0 1.014,0
00:37 19,7 18,2 19,2 91,0 3,5 184 - 0,0 0 1.014,0
00:36 19,7 18,2 19,2 91,0 3,7 203 - 0,0 0 1.014,0
00:35 19,7 18,2 19,2 91,0 3,8 194 - 0,0 0 1.014,0
00:34 19,7 18,2 19,2 91,0 3,9 211 - 0,0 0 1.014,1
00:33 19,7 18,2 19,2 91,0 4,0 209 - 0,0 0 1.014,0
00:32 19,7 18,2 19,2 91,0 4,2 207 - 0,0 0 1.014,0
00:31 19,7 18,2 19,2 91,0 4,2 192 - 0,0 0 1.014,0
00:30 19,7 18,2 19,2 91,0 4,0 206 - 0,0 0 1.014,0
00:29 19,7 18,2 19,2 91,0 3,6 159 - 0,0 0 1.014,1
00:28 19,7 18,2 19,2 91,0 3,4 192 - 0,0 0 1.014,1
00:27 19,7 18,2 19,2 91,0 3,1 197 - 0,0 0 1.014,1
00:26 19,7 18,2 19,2 91,0 3,0 181 - 0,0 0 1.014,1
00:25 19,7 18,2 19,2 91,0 3,2 158 - 0,0 0 1.014,1
00:24 19,7 18,2 19,2 91,0 3,1 192 - 0,0 0 1.014,1
00:23 19,7 18,2 19,2 91,0 3,0 158 - 0,0 0 1.014,2
00:22 19,7 18,2 19,2 91,0 3,4 213 - 0,0 0 1.014,3
00:21 19,7 18,2 19,2 91,0 4,2 210 - 0,0 0 1.014,3
00:20 19,7 18,2 19,2 91,0 4,3 209 - 0,0 0 1.014,3
00:19 19,7 18,2 19,2 91,0 4,3 222 - 0,0 0 1.014,3
00:18 19,7 18,2 19,2 91,0 4,1 232 - 0,0 0 1.014,3
00:17 19,7 18,2 19,2 91,0 3,6 193 - 0,0 0 1.014,3
00:16 19,7 18,2 19,2 91,0 2,9 187 - 0,0 0 1.014,3
00:15 19,7 18,2 19,2 91,0 2,6 176 - 0,0 0 1.014,3
00:14 19,7 18,2 19,2 91,0 2,8 175 - 0,0 0 1.014,3
00:13 19,7 18,2 19,2 91,0 3,3 206 - 0,0 0 1.014,3
00:12 19,7 18,2 19,2 91,0 3,7 211 - 0,0 0 1.014,3
00:11 19,7 18,2 19,2 91,0 3,9 192 - 0,0 0 1.014,2
00:10 19,7 18,2 19,2 91,0 3,8 206 - 0,0 0 1.014,3
00:09 19,7 18,2 19,2 91,0 3,5 178 - 0,0 0 1.014,3
00:08 19,7 18,2 19,2 91,0 3,3 181 - 0,0 0 1.014,4
00:07 19,7 18,2 19,2 91,0 3,4 196 - 0,0 0 1.014,4
00:06 19,7 18,2 19,2 91,0 3,7 222 - 0,0 0 1.014,4
00:05 19,7 18,2 19,2 91,0 3,9 222 - 0,0 0 1.014,4
00:04 19,7 18,2 19,2 91,0 3,8 205 - 0,0 0 1.014,5
00:03 19,7 18,2 19,2 91,0 3,7 188 - 0,0 0 1.014,5
00:02 19,7 18,2 19,2 91,0 3,3 203 - 0,0 0 1.014,5
00:01 19,7 18,2 19,2 91,0 3,0 181 - 0,0 0 1.014,5
00:00 19,7 18,2 19,2 91,0 3,0 227 - 1,8 0 1.014,5
 
23:59 19,7 18,2 19,2 91,0 3,3 200 - 1,8 0 1.014,6
23:58 19,7 18,2 19,2 91,0 3,9 201 - 1,8 0 1.014,6
23:57 19,7 18,2 19,2 91,0 4,0 198 - 1,8 0 1.014,6
23:56 19,7 18,2 19,2 91,0 3,5 195 - 1,8 0 1.014,6
23:55 19,7 18,2 19,2 91,0 3,0 223 - 1,8 0 1.014,6
23:54 19,7 18,2 19,2 91,0 2,9 172 - 1,8 0 1.014,6
23:53 19,7 18,2 19,2 91,0 2,9 222 - 1,8 0 1.014,6
23:52 19,7 18,2 19,2 91,0 2,9 144 - 1,8 0 1.014,6
23:51 19,7 18,2 19,2 91,0 3,3 200 - 1,8 0 1.014,7
23:50 19,7 18,2 19,2 91,0 3,6 210 - 1,8 0 1.014,7
23:49 19,7 18,2 19,2 91,0 3,6 222 - 1,8 0 1.014,7
23:48 19,7 18,2 19,2 91,0 3,6 208 - 1,8 0 1.014,7
23:47 19,7 18,2 19,2 91,0 3,7 233 - 1,8 0 1.014,7
23:46 19,7 18,2 19,2 91,0 3,5 199 - 1,8 0 1.014,7
23:45 19,7 18,2 19,2 91,0 3,4 192 - 1,8 0 1.014,7
23:44 19,7 18,2 19,2 91,0 3,2 226 - 1,8 0 1.014,7
23:43 19,7 18,2 19,2 91,0 3,3 190 - 1,8 0 1.014,7
23:42 19,7 18,2 19,2 91,0 2,9 217 - 1,8 0 1.014,7
23:41 19,7 18,2 19,2 91,0 2,6 197 - 1,8 0 1.014,7
23:40 19,7 18,2 19,2 91,0 2,6 188 - 1,8 0 1.014,7
23:39 19,7 18,2 19,2 91,0 2,8 195 - 1,8 0 1.014,7
23:38 19,7 18,2 19,2 91,0 3,0 175 - 1,8 0 1.014,7
23:37 19,7 18,2 19,2 91,0 2,8 193 - 1,8 0 1.014,7
23:36 19,7 18,1 19,2 90,5 2,9 223 - 1,8 0 1.014,8
23:35 19,7 18,1 19,2 90,7 3,4 203 - 1,8 0 1.014,8
23:34 19,7 18,1 19,2 90,2 3,9 195 - 1,8 0 1.014,7
23:33 19,7 18,0 19,1 90,0 3,6 207 - 1,8 0 1.014,7
23:32 19,7 18,0 19,1 90,0 3,2 222 - 1,8 0 1.014,8
23:31 19,7 18,0 19,1 90,0 3,1 195 - 1,8 0 1.014,9
23:30 19,7 18,0 19,1 90,0 3,4 200 - 1,8 0 1.014,9
23:29 19,7 18,0 19,1 90,0 3,5 190 - 1,8 0 1.014,9
23:28 19,7 18,0 19,2 90,0 3,2 224 - 1,8 0 1.014,9
23:27 19,7 18,0 19,2 90,0 2,9 179 - 1,8 0 1.014,9
23:26 19,7 18,0 19,2 90,0 2,7 192 - 1,8 0 1.014,9
23:25 19,7 18,0 19,1 90,0 2,5 206 - 1,8 0 1.014,9
23:24 19,7 18,0 19,1 90,0 2,4 208 - 1,8 0 1.014,9
23:23 19,7 18,0 19,1 90,0 2,5 191 - 1,8 0 1.014,9
23:22 19,7 18,0 19,1 90,0 2,7 209 - 1,8 0 1.014,9
23:21 19,7 18,0 19,1 90,0 2,8 206 - 1,8 0 1.014,9
23:20 19,7 18,0 19,2 90,0 2,8 203 - 1,8 0 1.014,9
23:19 19,7 18,0 19,1 90,0 2,9 205 - 1,8 0 1.014,9
23:18 19,7 18,0 19,1 90,0 2,8 207 - 1,8 0 1.014,9
23:17 19,7 18,0 19,1 90,0 3,0 158 - 1,8 0 1.015,0
23:16 19,7 18,0 19,1 90,0 3,1 172 - 1,8 0 1.015,0
23:15 19,7 18,0 19,1 90,0 3,3 215 - 1,8 0 1.015,0
23:14 19,7 18,0 19,1 90,0 3,5 206 - 1,8 0 1.015,0
23:13 19,7 18,0 19,1 90,0 3,5 184 - 1,8 0 1.014,9
23:12 19,7 18,0 19,1 90,0 3,5 197 - 1,6 0 1.014,9
23:11 19,7 18,0 19,1 90,0 3,5 184 - 1,6 0 1.015,0
23:10 19,7 18,0 19,1 90,0 3,6 204 - 1,6 0 1.015,0
23:09 19,7 18,0 19,1 90,0 3,9 225 - 1,6 0 1.015,0
23:08 19,7 18,0 19,2 90,0 3,9 190 - 1,6 0 1.015,0
23:07 19,7 18,0 19,1 90,0 4,1 228 - 1,6 0 1.015,0
23:06 19,7 18,0 19,1 90,0 4,3 207 - 1,6 0 1.015,1
23:05 19,7 18,0 19,1 90,0 4,7 206 - 1,6 0 1.015,1
23:04 19,7 18,0 19,1 90,0 4,6 207 - 1,6 0 1.015,1
23:03 19,7 17,9 19,1 89,8 4,3 208 - 1,6 0 1.015,1
23:02 19,7 17,8 19,6 89,0 3,9 217 - 1,6 0 1.015,1
23:01 19,6 17,8 19,6 89,0 3,4 208 - 1,6 0 1.015,1
23:00 19,7 17,8 19,6 89,0 3,2 218 - 1,6 0 1.015,0
 
22:59 19,6 17,8 19,5 89,0 3,5 223 - 1,6 0 1.015,0
22:58 19,6 17,8 19,5 89,0 3,6 228 - 1,6 0 1.015,1
22:57 19,6 17,8 19,5 89,0 3,2 211 - 1,6 0 1.015,0
22:56 19,6 17,8 19,5 89,0 3,0 203 - 1,6 0 1.015,0
22:55 19,6 17,7 19,5 89,0 3,2 178 - 1,6 0 1.015,0
22:54 19,6 17,7 19,5 89,0 3,1 177 - 1,6 0 1.015,1
22:53 19,6 17,8 19,6 89,0 2,8 195 - 1,6 0 1.015,1
22:52 19,6 17,7 19,5 89,0 2,7 180 - 1,6 0 1.015,1
22:51 19,6 17,7 19,5 89,0 2,6 201 - 1,6 0 1.015,1
22:50 19,6 17,7 19,5 89,0 2,6 209 - 1,6 0 1.015,1
22:49 19,6 17,7 19,5 89,0 2,8 173 - 1,6 0 1.015,1
22:48 19,6 17,7 19,5 89,0 3,2 178 - 1,6 0 1.015,1
22:47 19,6 17,7 19,5 89,0 3,3 183 - 1,6 0 1.015,2
22:46 19,6 17,7 19,5 89,0 3,1 201 - 1,6 0 1.015,2
22:45 19,6 17,7 19,5 89,0 2,7 182 - 1,6 0 1.015,2
22:44 19,6 17,7 19,5 89,0 2,9 212 - 1,6 0 1.015,2
22:43 19,6 17,7 19,5 89,0 2,9 197 - 1,6 0 1.015,3
22:42 19,6 17,7 19,5 89,0 2,7 199 - 1,6 0 1.015,3
22:41 19,6 17,7 19,5 89,0 2,5 161 - 1,6 0 1.015,3
22:40 19,6 17,7 19,5 89,0 2,3 194 - 1,6 0 1.015,3
22:39 19,5 17,7 19,5 89,0 2,5 204 - 1,6 0 1.015,3
22:38 19,5 17,6 19,4 89,0 2,5 193 - 1,6 0 1.015,3
22:37 19,5 17,6 19,4 89,0 1,9 206 - 1,6 0 1.015,3
22:36 19,5 17,7 19,4 89,0 1,6 138 - 1,6 0 1.015,3
22:35 19,5 17,6 19,4 89,0 1,5 188 - 1,6 0 1.015,3
22:34 19,5 17,7 19,4 89,0 1,5 199 - 1,6 0 1.015,3
22:33 19,5 17,6 19,4 89,0 1,7 178 - 1,6 0 1.015,3
22:32 19,5 17,6 19,4 89,0 1,9 203 - 1,6 0 1.015,3
22:31 19,5 17,6 19,4 89,0 2,1 160 - 1,6 0 1.015,4
22:30 19,5 17,5 19,3 88,2 2,2 215 - 1,6 0 1.015,3
22:29 19,5 17,5 19,3 88,0 2,4 161 - 1,6 0 1.015,3
22:28 19,5 17,4 19,2 88,0 2,3 197 - 1,6 0 1.015,3
22:27 19,5 17,5 19,3 88,0 2,4 181 - 1,6 0 1.015,4
22:26 19,5 17,4 19,3 88,0 2,4 187 - 1,6 0 1.015,4
22:25 19,5 17,4 19,3 88,0 2,4 178 - 1,6 0 1.015,3
22:24 19,5 17,5 19,3 88,0 2,6 159 - 1,6 0 1.015,3
22:23 19,5 17,4 19,2 88,0 2,7 199 - 1,6 0 1.015,3
22:22 19,5 17,4 19,2 88,0 2,6 182 - 1,6 0 1.015,3
22:21 19,5 17,4 19,2 88,0 2,5 195 - 1,6 0 1.015,3
22:20 19,5 17,4 19,2 88,0 2,7 203 - 1,6 0 1.015,3
22:19 19,5 17,4 19,2 88,0 2,4 204 - 1,6 0 1.015,3
22:18 19,5 17,4 19,3 88,0 1,9 180 - 1,6 0 1.015,2
22:17 19,5 17,5 19,3 88,0 1,8 193 - 1,6 0 1.015,2
22:16 19,5 17,5 19,3 88,0 1,7 199 - 1,6 0 1.015,3
22:15 19,5 17,5 19,3 88,4 2,0 141 - 1,6 0 1.015,3
22:14 19,5 17,6 19,4 89,0 2,1 172 - 1,6 0 1.015,3
22:13 19,5 17,5 19,3 88,3 2,0 200 - 1,6 0 1.015,4
22:12 19,5 17,5 19,3 88,0 1,8 184 - 1,6 0 1.015,4
22:11 19,6 17,5 19,3 88,2 1,9 192 - 1,6 0 1.015,4
22:10 19,6 17,6 19,4 88,7 1,7 206 - 1,6 0 1.015,4
22:09 19,6 17,6 19,4 88,5 1,8 202 - 1,6 0 1.015,4
22:08 19,6 17,7 19,5 89,0 1,9 203 - 1,6 0 1.015,3
22:07 19,6 17,7 19,5 89,0 2,1 190 - 1,6 0 1.015,3
22:06 19,6 17,7 19,5 89,0 1,8 183 - 1,6 0 1.015,3
22:05 19,6 17,8 19,6 89,0 1,4 161 - 1,6 0 1.015,3
22:04 19,7 17,8 19,6 89,0 1,1 245 - 1,6 0 1.015,4
22:03 19,7 17,8 19,6 89,0 1,4 209 - 1,6 0 1.015,4
22:02 19,7 17,8 19,6 89,0 1,6 191 - 1,6 0 1.015,4
22:01 19,7 17,8 19,6 89,0 1,6 191 - 1,6 0 1.015,4
22:00 19,7 17,8 19,6 89,0 1,5 188 - 1,6 0 1.015,4
 
21:59 19,7 17,9 19,6 89,0 1,5 165 - 1,6 0 1.015,3
21:58 19,7 17,9 19,6 89,0 1,7 203 - 1,6 0 1.015,3
21:57 19,7 17,9 19,6 89,0 1,7 159 - 1,6 0 1.015,4
21:56 19,7 17,8 19,6 89,0 1,9 199 - 1,6 0 1.015,4
21:55 19,7 17,9 19,7 89,0 2,2 199 - 1,6 0 1.015,4
21:54 19,7 17,9 19,7 89,0 2,2 210 - 1,6 0 1.015,4
21:53 19,7 17,9 19,7 89,0 2,4 195 - 1,6 0 1.015,4
21:52 19,7 17,9 19,6 89,0 3,0 205 - 1,6 0 1.015,5
21:51 19,7 17,9 19,6 89,0 3,3 175 - 1,6 0 1.015,5
21:50 19,7 17,9 19,6 89,0 3,3 189 - 1,6 0 1.015,5
21:49 19,7 17,9 19,6 89,0 3,0 201 - 1,6 0 1.015,5
21:48 19,7 17,9 19,7 89,0 2,7 206 - 1,6 0 1.015,5
21:47 19,8 17,9 19,7 89,0 2,7 236 - 1,6 0 1.015,4
21:46 19,8 17,9 19,7 89,0 2,9 215 - 1,6 0 1.015,4
21:45 19,8 17,9 19,7 89,0 2,9 213 - 1,6 0 1.015,4
21:44 19,8 17,9 19,7 89,0 2,8 202 - 1,6 0 1.015,4
21:43 19,8 17,9 19,7 89,0 2,8 206 - 1,6 0 1.015,5
21:42 19,8 17,9 19,7 89,0 2,9 208 - 1,6 0 1.015,5
21:41 19,8 17,8 19,6 88,6 1,7 224 - 1,6 0 1.015,5
21:40 19,8 17,7 19,6 88,0 1,2 350 - 1,6 0 1.015,6
21:39 19,8 17,8 19,6 88,0 1,4 203 - 1,6 0 1.015,6
21:38 19,8 17,8 19,6 88,0 2,9 226 - 1,6 0 1.015,6
21:37 19,8 17,8 19,6 88,0 3,1 222 - 1,6 0 1.015,6
21:36 19,8 17,8 19,7 88,3 3,0 204 - 1,6 0 1.015,6
21:35 19,9 18,0 19,8 89,0 2,9 205 - 1,6 0 1.015,6
21:34 19,9 18,0 19,8 89,0 2,9 209 - 1,6 0 1.015,7
21:33 19,9 17,9 19,8 88,5 3,3 217 - 1,6 0 1.015,6
21:32 19,9 17,9 19,7 88,0 3,6 221 - 1,6 0 1.015,6
21:31 19,9 17,9 19,7 88,0 3,7 206 - 1,6 0 1.015,7
21:30 19,9 17,9 19,7 88,0 3,8 232 - 1,6 0 1.015,7
21:29 19,9 17,9 19,7 88,0 4,0 251 - 1,6 0 1.015,7
21:28 19,9 17,9 19,7 88,0 3,6 255 - 1,6 0 1.015,7
21:27 20,0 17,9 19,8 88,0 3,3 202 - 1,6 0 1.015,7
21:26 20,0 17,9 19,8 88,0 3,7 218 - 1,6 0 1.015,7
21:25 20,0 17,9 19,8 88,0 3,6 224 - 1,6 0 1.015,7
21:24 20,0 18,0 19,8 88,0 3,3 218 - 1,6 0 1.015,7
21:23 20,0 18,0 19,8 88,0 3,2 222 - 1,6 0 1.015,7
21:22 20,1 18,0 19,8 88,0 3,9 227 - 1,6 0 1.015,8
21:21 20,1 18,0 19,9 88,0 4,6 233 - 1,6 0 1.015,8
21:20 20,1 18,0 19,9 88,0 4,7 245 - 1,6 0 1.015,8
21:19 20,1 18,0 19,9 88,0 4,9 191 - 1,6 0 1.015,8
21:18 20,1 18,0 19,9 88,0 5,1 216 - 1,6 0 1.015,8
21:17 20,1 18,0 19,9 88,0 4,9 215 - 1,6 0 1.015,7
21:16 20,1 18,0 19,9 88,0 5,2 240 - 1,6 0 1.015,7
21:15 20,1 18,0 19,9 88,0 5,7 228 - 1,6 0 1.015,6
21:14 20,1 18,0 19,9 88,0 5,5 221 - 1,6 0 1.015,6
21:13 20,1 18,0 19,9 88,0 5,2 253 - 1,6 0 1.015,6
21:12 20,1 18,0 19,9 88,0 5,3 227 - 1,6 0 1.015,6
21:11 20,1 18,0 19,9 88,0 5,7 228 - 1,6 0 1.015,6
21:10 20,1 18,0 19,9 88,0 5,7 233 - 1,6 0 1.015,7
21:09 20,1 18,0 19,9 88,0 5,6 244 - 1,6 0 1.015,7
21:08 20,1 18,0 19,9 88,0 5,3 237 - 1,6 0 1.015,7
21:07 20,1 18,0 19,9 88,0 4,8 265 - 1,6 0 1.015,7
21:06 20,1 18,0 19,9 88,0 4,8 208 - 1,6 0 1.015,7
21:05 20,1 18,0 19,9 88,0 5,2 243 - 1,6 0 1.015,7
21:04 20,1 18,0 19,9 88,0 5,1 217 - 1,6 0 1.015,6
21:03 20,1 18,0 19,9 88,0 5,9 217 - 1,6 0 1.015,7
21:02 20,1 18,1 19,9 88,0 5,0 256 - 1,6 0 1.015,7
21:01 20,1 18,1 19,9 88,0 5,5 213 - 1,6 0 1.015,7
21:00 20,1 18,1 19,9 88,0 5,3 232 - 1,6 0 1.015,7
 
20:59 20,1 18,1 19,9 88,0 5,5 205 - 1,6 0 1.015,8
20:58 20,1 18,0 19,8 87,5 6,1 231 - 1,6 0 1.015,8
20:57 20,1 17,9 19,8 87,0 6,5 230 - 1,6 0 1.015,7
20:56 20,1 17,9 19,7 87,0 5,7 207 - 1,6 0 1.015,7
20:55 20,1 17,9 19,7 87,0 5,9 241 - 1,6 0 1.015,7
20:54 20,1 17,8 19,7 87,0 5,3 237 - 1,6 0 1.015,7